| time (UTC) | temp C | wind direction | speed KPH | gust KPH | rain 1hr cm | rain 24hr cm | rain mn cm | humidity % | barometer mb |
| 20260901141321 | -17 | 153 | 0.0 | 0.0 | 0.00 | 0.41 | 0.05 | 1023.2 | |
| 20260901141221 | -17 | 153 | 0.0 | 0.0 | 0.00 | 0.41 | 0.05 | 1023.2 | |
| 20260901141118 | -17 | 153 | 0.0 | 0.0 | 0.00 | 0.41 | 0.05 | 1023.2 | |
| 20260901141008 | -17 | 153 | 0.0 | 0.0 | 0.00 | 0.41 | 0.05 | 1023.2 | |
| 20260901140907 | -17 | 153 | 0.0 | 0.0 | 0.00 | 0.41 | 0.05 | 1023.1 | |
| 20260901140808 | -17 | 153 | 0.0 | 0.0 | 0.00 | 0.41 | 0.05 | 1023.1 | |
| 20260901140704 | -17 | 153 | 0.0 | 0.0 | 0.00 | 0.41 | 0.05 | 1023.0 | |
| 20260901140601 | -17 | 153 | 0.0 | 0.0 | 0.00 | 0.41 | 0.05 | 1023.0 | |
| 20260901140500 | -17 | 153 | 0.0 | 0.0 | 0.00 | 0.41 | 0.05 | 1023.0 | |
| 20260901140405 | -17 | 153 | 0.0 | 1.6 | 0.00 | 0.41 | 0.05 | 1023.1 | |
| 20260901140401 | -17 | 153 | 0.0 | 1.6 | 0.00 | 0.41 | 0.05 | 1023.1 | |
| 20260901140306 | -17 | 153 | 0.0 | 1.6 | 0.00 | 0.41 | 0.05 | 1023.0 | |
| 20260901140056 | -17 | 153 | 0.0 | 1.6 | 0.00 | 0.41 | 0.05 | 1022.9 | |
| 20260901135956 | -17 | 153 | 0.0 | 1.6 | 0.00 | 0.41 | 0.05 | 1023.0 | |
| 20260901135900 | -17 | 153 | 0.0 | 1.6 | 0.00 | 0.41 | 0.05 | 1023.0 | |
| 20260901135652 | -17 | 153 | 0.0 | 3.2 | 0.00 | 0.41 | 0.05 | 1022.9 | |
| 20260901135550 | -17 | 153 | 0.0 | 3.2 | 0.00 | 0.41 | 0.05 | 1023.0 | |
| 20260901135450 | -17 | 153 | 1.6 | 3.2 | 0.00 | 0.41 | 0.05 | 1023.0 | |
| 20260901135349 | -17 | 153 | 1.6 | 3.2 | 0.00 | 0.41 | 0.05 | 1022.9 | |
| 20260901135246 | -17 | 153 | 1.6 | 3.2 | 0.00 | 0.41 | 0.05 | 1022.9 | |
| 20260901135146 | -17 | 153 | 1.6 | 3.2 | 0.00 | 0.41 | 0.05 | 1022.9 | |
| 20260901135044 | -17 | 153 | 1.6 | 3.2 | 0.00 | 0.41 | 0.05 | 1023.0 | |
| 20260901134945 | -17 | 153 | 1.6 | 4.8 | 0.00 | 0.41 | 0.05 | 1023.0 | |
| 20260901134856 | -17 | 153 | 1.6 | 6.4 | 0.00 | 0.41 | 0.05 | 1023.0 | |
| 20260901134843 | -17 | 153 | 1.6 | 8.0 | 0.00 | 0.41 | 0.05 | 1023.0 | |
| 20260901134742 | -17 | 153 | 3.2 | 8.0 | 0.00 | 0.41 | 0.05 | 1023.1 | |
| 20260901134647 | -17 | 153 | 3.2 | 8.0 | 0.00 | 0.41 | 0.05 | 1023.1 | |
| 20260901134440 | -17 | 153 | 3.2 | 8.0 | 0.00 | 0.41 | 0.05 | 1023.1 | |
| 20260901134356 | -17 | 153 | 3.2 | 8.0 | 0.00 | 0.41 | 0.05 | 1023.1 | |
| 20260901134349 | -17 | 153 | 3.2 | 8.0 | 0.00 | 0.41 | 0.05 | 1023.0 | |
| 20260901134003 | -17 | 153 | 3.2 | 8.0 | 0.00 | 0.41 | 0.05 | 1022.9 | |
| 20260901133827 | -17 | 153 | 3.2 | 8.0 | 0.00 | 0.41 | 0.05 | 1022.9 | |
| 20260901133724 | -17 | 153 | 3.2 | 8.0 | 0.00 | 0.41 | 0.05 | 1022.9 | |
| 20260901133629 | -17 | 153 | 3.2 | 8.0 | 0.00 | 0.41 | 0.05 | 1022.9 | |
| 20260901133422 | -17 | 153 | 3.2 | 8.0 | 0.00 | 0.41 | 0.05 | 1022.8 | |
| 20260901133353 | -17 | 153 | 3.2 | 8.0 | 0.00 | 0.41 | 0.05 | 1022.8 | |
| 20260901133320 | -17 | 153 | 3.2 | 8.0 | 0.00 | 0.41 | 0.05 | 1022.8 | |
| 20260901133219 | -17 | 153 | 4.8 | 8.0 | 0.00 | 0.41 | 0.05 | 1022.8 | |
| 20260901133118 | -17 | 153 | 4.8 | 8.0 | 0.00 | 0.41 | 0.05 | 1022.8 | |
| 20260901133017 | -17 | 153 | 4.8 | 8.0 | 0.00 | 0.41 | 0.05 | 1022.8 | |
| 20260901132916 | -17 | 161 | 4.8 | 8.0 | 0.00 | 0.41 | 0.05 | 1022.8 | |
| 20260901132854 | -17 | 161 | 4.8 | 8.0 | 0.00 | 0.41 | 0.05 | 1022.8 | |
| 20260901132814 | -17 | 161 | 4.8 | 9.7 | 0.00 | 0.41 | 0.05 | 1022.8 | |
| 20260901132712 | -17 | 161 | 4.8 | 9.7 | 0.00 | 0.41 | 0.05 | 1022.8 | |
| 20260901132617 | -17 | 161 | 4.8 | 9.7 | 0.00 | 0.41 | 0.05 | 1022.6 | |
| 20260901132501 | -17 | 161 | 4.8 | 9.7 | 0.00 | 0.41 | 0.05 | 1022.8 | |
| 20260901132308 | -17 | 161 | 4.8 | 9.7 | 0.00 | 0.41 | 0.05 | 1022.8 | |
| 20260901132208 | -17 | 161 | 4.8 | 9.7 | 0.00 | 0.41 | 0.05 | 1022.8 | |
| 20260901132109 | -17 | 161 | 4.8 | 9.7 | 0.00 | 0.41 | 0.05 | 1022.8 | |
| 20260901131855 | -17 | 161 | 3.2 | 9.7 | 0.00 | 0.41 | 0.05 | 1022.6 | |
| 20260901131808 | -17 | 161 | 3.2 | 8.0 | 0.00 | 0.41 | 0.05 | 1022.6 | |
| 20260901131602 | -17 | 161 | 1.6 | 6.4 | 0.00 | 0.41 | 0.05 | 1022.5 | |
| 20260901131458 | -17 | 161 | 1.6 | 6.4 | 0.00 | 0.41 | 0.05 | 1022.5 | |
| 20260901131356 | -17 | 161 | 1.6 | 6.4 | 0.00 | 0.41 | 0.05 | 1022.5 | |
| 20260901131257 | -17 | 308 | 1.6 | 4.8 | 0.00 | 0.41 | 0.05 | 1022.5 | |
| 20260901131155 | -17 | 308 | 0.0 | 3.2 | 0.00 | 0.41 | 0.05 | 1022.4 | |
| 20260901131054 | -17 | 308 | 0.0 | 3.2 | 0.00 | 0.41 | 0.05 | 1022.4 | |
| 20260901130952 | -17 | 308 | 0.0 | 3.2 | 0.00 | 0.41 | 0.05 | 1022.4 | |
| 20260901130850 | -17 | 308 | 0.0 | 3.2 | 0.00 | 0.41 | 0.05 | 1022.4 | |
| 20260901130750 | -17 | 308 | 0.0 | 3.2 | 0.00 | 0.41 | 0.05 | 1022.3 | |
| 20260901130648 | -17 | 308 | 0.0 | 3.2 | 0.00 | 0.41 | 0.05 | 1022.3 | |
| 20260901130548 | -17 | 308 | 1.6 | 3.2 | 0.00 | 0.41 | 0.05 | 1022.4 | |
| 20260901130446 | -17 | 308 | 1.6 | 3.2 | 0.00 | 0.41 | 0.05 | 1022.3 | |
| 20260901130344 | -17 | 308 | 1.6 | 4.8 | 0.00 | 0.41 | 0.05 | 1022.3 | |
| 20260901130240 | -17 | 308 | 1.6 | 4.8 | 0.00 | 0.41 | 0.05 | 1022.2 | |
| 20260901130147 | -17 | 308 | 1.6 | 6.4 | 0.00 | 0.41 | 0.05 | 1022.2 | |
| 20260901125940 | -17 | 308 | 3.2 | 6.4 | 0.00 | 0.41 | 0.05 | 1022.2 | |
| 20260901125847 | -17 | 308 | 3.2 | 6.4 | 0.00 | 0.41 | 0.05 | 1022.2 | |
| 20260901125641 | -17 | 308 | 4.8 | 8.0 | 0.00 | 0.41 | 0.05 | 1022.2 | |
| 20260901125557 | -17 | 308 | 4.8 | 8.0 | 0.00 | 0.41 | 0.05 | 1022.2 | |
| 20260901125550 | -17 | 308 | 4.8 | 8.0 | 0.00 | 0.41 | 0.05 | 1022.2 | |
| 20260901125237 | -17 | 308 | 4.8 | 8.0 | 0.00 | 0.41 | 0.05 | 1022.0 | |
| 20260901125140 | -17 | 308 | 4.8 | 8.0 | 0.00 | 0.41 | 0.05 | 1022.0 | |
| 20260901124944 | -17 | 308 | 4.8 | 8.0 | 0.00 | 0.41 | 0.05 | 1022.0 | |
| 20260901124833 | -17 | 308 | 3.2 | 8.0 | 0.00 | 0.41 | 0.05 | 1022.0 | |
| 20260901124730 | -17 | 308 | 3.2 | 8.0 | 0.00 | 0.41 | 0.05 | 1021.9 | |
| 20260901124639 | -17 | 308 | 3.2 | 8.0 | 0.00 | 0.41 | 0.05 | 1022.0 | |
| 20260901124538 | -17 | 308 | 3.2 | 8.0 | 0.00 | 0.41 | 0.05 | 1022.0 | |
| 20260901124452 | -17 | 308 | 3.2 | 8.0 | 0.00 | 0.41 | 0.05 | 1021.9 | |
| 20260901124324 | -17 | 308 | 3.2 | 8.0 | 0.00 | 0.41 | 0.05 | 1021.9 | |
| 20260901124224 | -17 | 308 | 3.2 | 8.0 | 0.00 | 0.41 | 0.05 | 1022.0 | |
| 20260901124123 | -17 | 308 | 3.2 | 8.0 | 0.00 | 0.41 | 0.05 | 1022.0 | |
| 20260901124022 | -17 | 308 | 4.8 | 8.0 | 0.00 | 0.41 | 0.05 | 1021.9 | |
| 20260901123932 | -17 | 308 | 4.8 | 9.7 | 0.00 | 0.41 | 0.05 | 1021.9 | |
| 20260901123925 | -17 | 308 | 4.8 | 9.7 | 0.00 | 0.41 | 0.05 | 1021.9 | |
| 20260901123719 | -17 | 308 | 4.8 | 9.7 | 0.00 | 0.41 | 0.05 | 1021.9 | |
| 20260901123622 | -17 | 308 | 4.8 | 9.7 | 0.00 | 0.41 | 0.05 | 1021.9 | |
| 20260901123414 | -17 | 328 | 4.8 | 9.7 | 0.00 | 0.41 | 0.05 | 1021.9 | |
| 20260901123333 | -17 | 328 | 3.2 | 9.7 | 0.00 | 0.41 | 0.05 | 1021.9 | |
| 20260901123314 | -17 | 327 | 3.2 | 9.7 | 0.00 | 0.41 | 0.05 | 1021.9 | |
| 20260901123213 | -17 | 328 | 3.2 | 9.7 | 0.00 | 0.41 | 0.05 | 1021.9 | |
| 20260901123113 | -17 | 328 | 3.2 | 9.7 | 0.00 | 0.41 | 0.05 | 1021.9 | |
| 20260901123012 | -17 | 305 | 1.6 | 9.7 | 0.00 | 0.41 | 0.05 | 1021.9 | |
| 20260901122912 | -17 | 323 | 1.6 | 8.0 | 0.00 | 0.41 | 0.05 | 1021.9 | |
| 20260901122812 | -17 | 306 | 1.6 | 4.8 | 0.00 | 0.41 | 0.05 | 1021.9 | |
| 20260901122711 | -17 | 193 | 0.0 | 4.8 | 0.00 | 0.41 | 0.05 | 1021.9 | |
| 20260901122611 | -17 | 192 | 0.0 | 3.2 | 0.00 | 0.41 | 0.05 | 1021.8 | |
| 20260901122510 | -17 | 192 | 0.0 | 3.2 | 0.00 | 0.41 | 0.05 | 1021.8 | |
| 20260901122411 | -17 | 193 | 0.0 | 1.6 | 0.00 | 0.41 | 0.05 | 1021.7 | |
| 20260901122332 | -17 | 192 | 0.0 | 1.6 | 0.00 | 0.41 | 0.05 | 1021.7 | |
| 20260901122311 | -17 | 193 | 0.0 | 1.6 | 0.00 | 0.41 | 0.05 | 1021.7 | |
| 20260901122208 | -17 | 192 | 0.0 | 1.6 | 0.00 | 0.41 | 0.05 | 1021.7 | |
| 20260901122106 | -17 | 192 | 0.0 | 1.6 | 0.00 | 0.41 | 0.05 | 1021.7 | |
| 20260901122006 | -17 | 193 | 0.0 | 1.6 | 0.00 | 0.41 | 0.05 | 1021.7 | |
| 20260901121907 | -17 | 192 | 0.0 | 1.6 | 0.00 | 0.41 | 0.05 | 1021.7 | |
| 20260901121806 | -17 | 192 | 0.0 | 1.6 | 0.00 | 0.41 | 0.05 | 1021.7 | |
| 20260901121706 | -17 | 192 | 0.0 | 3.2 | 0.00 | 0.41 | 0.05 | 1021.7 | |
| 20260901121605 | -17 | 192 | 0.0 | 3.2 | 0.00 | 0.41 | 0.05 | 1021.7 | |
| 20260901121500 | -17 | 192 | 1.6 | 4.8 | 0.00 | 0.41 | 0.05 | 1021.7 | |
| 20260901121331 | -17 | 192 | 1.6 | 4.8 | 0.00 | 0.41 | 0.05 | 1021.8 | |
| 20260901121305 | -17 | 192 | 1.6 | 4.8 | 0.00 | 0.41 | 0.05 | 1021.8 | |
| 20260901121059 | -17 | 192 | 1.6 | 6.4 | 0.00 | 0.41 | 0.05 | 1021.7 | |
| 20260901120958 | -17 | 192 | 3.2 | 6.4 | 0.00 | 0.41 | 0.05 | 1021.7 | |
| 20260901120831 | -17 | 192 | 3.2 | 6.4 | 0.00 | 0.41 | 0.05 | 1021.8 | |
| 20260901120805 | -17 | 193 | 3.2 | 6.4 | 0.00 | 0.41 | 0.05 | 1021.8 | |
| 20260901120559 | -17 | 192 | 3.2 | 6.4 | 0.00 | 0.41 | 0.05 | 1021.8 | |
| 20260901120515 | -17 | 192 | 3.2 | 6.4 | 0.00 | 0.41 | 0.05 | 1021.9 | |
| 20260901120401 | -17 | 192 | 3.2 | 6.4 | 0.00 | 0.41 | 0.05 | 1021.9 | |
| 20260901120154 | -17 | 192 | 3.2 | 6.4 | 0.00 | 0.41 | 0.05 | 1021.9 | |
| 20260901120054 | -17 | 225 | 3.2 | 6.4 | 0.00 | 0.41 | 0.05 | 1021.9 | |
| 20260901115950 | -17 | 235 | 3.2 | 6.4 | 0.00 | 0.41 | 0.05 | 1021.9 | |
| 20260901115848 | -17 | 219 | 3.2 | 6.4 | 0.00 | 0.41 | 0.05 | 1021.8 | |
| 20260901115830 | -17 | 196 | 3.2 | 6.4 | 0.00 | 0.41 | 0.05 | 1021.8 | |
| 20260901115749 | -17 | 196 | 3.2 | 6.4 | 0.00 | 0.41 | 0.05 | 1021.8 | |
| 20260901115648 | -17 | 196 | 3.2 | 6.4 | 0.00 | 0.41 | 0.05 | 1021.8 | |
| 20260901115548 | -17 | 196 | 1.6 | 6.4 | 0.00 | 0.41 | 0.05 | 1021.8 | |
| 20260901115449 | -17 | 240 | 1.6 | 4.8 | 0.00 | 0.41 | 0.05 | 1021.8 | |
| 20260901115348 | -17 | 240 | 1.6 | 4.8 | 0.00 | 0.41 | 0.05 | 1021.9 | |
| 20260901115330 | -17 | 240 | 1.6 | 4.8 | 0.00 | 0.41 | 0.05 | 1021.8 | |
| 20260901115248 | -17 | 240 | 1.6 | 4.8 | 0.00 | 0.41 | 0.05 | 1021.8 | |
| 20260901115149 | 13 | 240 | 1.6 | 4.8 | 0.00 | 0.41 | 0.05 | 89 | 1021.8 |
| 20260901115048 | 13 | 240 | 1.6 | 4.8 | 0.00 | 0.41 | 0.05 | 89 | 1021.9 |
| 20260901114949 | 13 | 240 | 1.6 | 4.8 | 0.00 | 0.41 | 0.05 | 89 | 1021.9 |
| 20260901114830 | 13 | 240 | 1.6 | 4.8 | 0.00 | 0.41 | 0.05 | 89 | 1021.8 |
| 20260901114748 | 13 | 240 | 1.6 | 4.8 | 0.00 | 0.41 | 0.05 | 89 | 1021.8 |
| 20260901114648 | 13 | 240 | 3.2 | 4.8 | 0.00 | 0.41 | 0.05 | 89 | 1021.8 |
| 20260901114544 | 13 | 240 | 3.2 | 4.8 | 0.00 | 0.41 | 0.05 | 89 | 1021.7 |
| 20260901114444 | 13 | 240 | 3.2 | 4.8 | 0.00 | 0.41 | 0.05 | 89 | 1021.7 |
| 20260901114326 | 13 | 213 | 3.2 | 4.8 | 0.00 | 0.41 | 0.05 | 89 | 1021.8 |
| 20260901114241 | 13 | 213 | 3.2 | 4.8 | 0.00 | 0.41 | 0.05 | 89 | 1021.8 |
| 20260901114142 | 13 | 207 | 3.2 | 4.8 | 0.00 | 0.41 | 0.05 | 89 | 1021.7 |
| 20260901114040 | 13 | 202 | 3.2 | 4.8 | 0.00 | 0.41 | 0.05 | 89 | 1021.8 |
| 20260901113947 | 13 | 202 | 3.2 | 4.8 | 0.00 | 0.41 | 0.05 | 89 | 1021.8 |
| 20260901113825 | 13 | 202 | 3.2 | 4.8 | 0.00 | 0.41 | 0.05 | 89 | 1021.8 |
| 20260901113739 | 13 | 202 | 3.2 | 4.8 | 0.00 | 0.41 | 0.05 | 89 | 1021.8 |
| 20260901113639 | 13 | 202 | 3.2 | 4.8 | 0.00 | 0.41 | 0.05 | 89 | 1021.9 |
| 20260901113537 | 13 | 202 | 3.2 | 4.8 | 0.00 | 0.41 | 0.05 | 89 | 1021.8 |
| 20260901113436 | 13 | 202 | 3.2 | 4.8 | 0.00 | 0.41 | 0.05 | 89 | 1021.8 |
| 20260901113319 | 13 | 202 | 3.2 | 4.8 | 0.00 | 0.41 | 0.05 | 89 | 1021.8 |
| 20260901113230 | 13 | 202 | 1.6 | 4.8 | 0.00 | 0.41 | 0.05 | 89 | 1021.8 |
| 20260901113131 | 13 | 202 | 1.6 | 4.8 | 0.00 | 0.41 | 0.05 | 89 | 1021.8 |
| 20260901113031 | 13 | 194 | 1.6 | 4.8 | 0.00 | 0.41 | 0.05 | 89 | 1021.9 |
| 20260901112930 | 13 | 221 | 1.6 | 4.8 | 0.00 | 0.41 | 0.05 | 89 | 1021.8 |
| 20260901112819 | 13 | 221 | 1.6 | 4.8 | 0.00 | 0.41 | 0.05 | 89 | 1021.8 |
| 20260901112730 | 13 | 221 | 1.6 | 4.8 | 0.00 | 0.41 | 0.05 | 89 | 1021.8 |
| 20260901112631 | 13 | 221 | 1.6 | 4.8 | 0.00 | 0.41 | 0.05 | 89 | 1021.8 |
| 20260901112530 | 13 | 221 | 1.6 | 4.8 | 0.00 | 0.41 | 0.05 | 89 | 1021.8 |
| 20260901112430 | 13 | 221 | 1.6 | 3.2 | 0.00 | 0.41 | 0.05 | 89 | 1021.8 |
| 20260901112320 | 13 | 221 | 1.6 | 3.2 | 0.00 | 0.41 | 0.05 | 89 | 1021.7 |
| 20260901112236 | 13 | 221 | 1.6 | 3.2 | 0.00 | 0.41 | 0.05 | 89 | 1021.8 |
| 20260901112030 | 13 | 221 | 1.6 | 3.2 | 0.00 | 0.41 | 0.05 | 89 | 1021.8 |
| 20260901111927 | 13 | 221 | 1.6 | 3.2 | 0.00 | 0.41 | 0.05 | 89 | 1021.8 |
| 20260901111820 | 13 | 221 | 1.6 | 3.2 | 0.00 | 0.41 | 0.05 | 89 | 1021.8 |
| 20260901111726 | 13 | 221 | 1.6 | 3.2 | 0.00 | 0.41 | 0.05 | 90 | 1021.8 |
| 20260901111631 | 13 | 221 | 1.6 | 3.2 | 0.00 | 0.41 | 0.05 | 90 | 1021.8 |
| 20260901111434 | 13 | 221 | 1.6 | 3.2 | 0.00 | 0.41 | 0.05 | 90 | 1021.8 |
| 20260901111323 | 13 | 221 | 1.6 | 4.8 | 0.00 | 0.41 | 0.05 | 90 | 1021.8 |
| 20260901111228 | 14 | 221 | 1.6 | 4.8 | 0.00 | 0.41 | 0.05 | 90 | 1021.8 |
| 20260901111041 | 14 | 221 | 1.6 | 4.8 | 0.00 | 0.41 | 0.05 | 90 | 1021.9 |
| 20260901110927 | 14 | 221 | 1.6 | 4.8 | 0.00 | 0.41 | 0.05 | 90 | 1021.9 |
| 20260901110718 | 14 | 221 | 3.2 | 4.8 | 0.00 | 0.41 | 0.05 | 90 | 1021.9 |
| 20260901110625 | 13 | 221 | 1.6 | 4.8 | 0.00 | 0.41 | 0.05 | 90 | 1021.9 |
| 20260901110418 | 13 | 221 | 1.6 | 4.8 | 0.00 | 0.41 | 0.05 | 90 | 1022.0 |
| 20260901110318 | 13 | 221 | 1.6 | 4.8 | 0.00 | 0.41 | 0.05 | 90 | 1021.9 |
| 20260901110218 | 13 | 221 | 1.6 | 4.8 | 0.00 | 0.41 | 0.05 | 90 | 1021.9 |
| 20260901110125 | 13 | 221 | 1.6 | 4.8 | 0.00 | 0.41 | 0.05 | 90 | 1022.0 |
| 20260901105929 | 13 | 221 | 1.6 | 4.8 | 0.00 | 0.41 | 0.05 | 90 | 1022.0 |
| 20260901105922 | 13 | 221 | 1.6 | 4.8 | 0.00 | 0.41 | 0.05 | 90 | 1022.0 |
| 20260901105718 | 13 | 199 | 1.6 | 4.8 | 0.00 | 0.41 | 0.05 | 90 | 1022.0 |
| 20260901105619 | 13 | 199 | 1.6 | 4.8 | 0.00 | 0.41 | 0.05 | 90 | 1021.9 |
| 20260901105525 | 13 | 199 | 1.6 | 4.8 | 0.00 | 0.41 | 0.05 | 90 | 1021.9 |
| 20260901105318 | 13 | 199 | 1.6 | 4.8 | 0.00 | 0.41 | 0.05 | 90 | 1022.0 |
| 20260901105217 | 13 | 199 | 1.6 | 4.8 | 0.00 | 0.41 | 0.05 | 90 | 1022.0 |
| 20260901105132 | 13 | 199 | 1.6 | 4.8 | 0.00 | 0.41 | 0.05 | 90 | 1022.0 |
| 20260901104813 | 13 | 199 | 3.2 | 4.8 | 0.00 | 0.41 | 0.05 | 89 | 1022.0 |
| 20260901104714 | 13 | 199 | 3.2 | 4.8 | 0.00 | 0.41 | 0.05 | 89 | 1022.0 |
| 20260901104614 | 13 | 199 | 3.2 | 4.8 | 0.00 | 0.41 | 0.05 | 89 | 1022.0 |
| 20260901104514 | 13 | 199 | 3.2 | 4.8 | 0.00 | 0.41 | 0.05 | 89 | 1022.0 |
| 20260901104414 | 13 | 199 | 3.2 | 4.8 | 0.00 | 0.41 | 0.05 | 89 | 1022.2 |
| 20260901104315 | 13 | 199 | 3.2 | 4.8 | 0.00 | 0.41 | 0.05 | 89 | 1022.0 |
| 20260901104214 | 13 | 199 | 1.6 | 4.8 | 0.00 | 0.41 | 0.05 | 89 | 1022.2 |
| 20260901104115 | 13 | 199 | 1.6 | 4.8 | 0.00 | 0.41 | 0.05 | 89 | 1022.2 |
| 20260901104014 | 13 | 199 | 1.6 | 4.8 | 0.00 | 0.41 | 0.05 | 89 | 1022.0 |
| 20260901103933 | 13 | 199 | 1.6 | 4.8 | 0.00 | 0.41 | 0.05 | 89 | 1022.2 |
| 20260901103926 | 13 | 199 | 1.6 | 3.2 | 0.00 | 0.41 | 0.05 | 89 | 1022.0 |
| 20260901103614 | 13 | 199 | 1.6 | 4.8 | 0.00 | 0.41 | 0.05 | 89 | 1022.0 |
| 20260901103514 | 13 | 199 | 1.6 | 4.8 | 0.00 | 0.41 | 0.05 | 89 | 1022.0 |
| 20260901103427 | 13 | 199 | 1.6 | 4.8 | 0.00 | 0.41 | 0.05 | 89 | 1022.0 |
| 20260901103314 | 13 | 199 | 1.6 | 4.8 | 0.00 | 0.41 | 0.05 | 89 | 1022.0 |
| 20260901103221 | 13 | 199 | 3.2 | 4.8 | 0.00 | 0.41 | 0.05 | 89 | 1022.0 |
| 20260901103014 | 14 | 199 | 3.2 | 4.8 | 0.00 | 0.41 | 0.05 | 89 | 1022.3 |
| 20260901102910 | 14 | 199 | 3.2 | 4.8 | 0.00 | 0.41 | 0.05 | 89 | 1022.3 |
| 20260901102810 | 14 | 199 | 3.2 | 4.8 | 0.00 | 0.41 | 0.05 | 89 | 1022.3 |
| 20260901102717 | 14 | 199 | 1.6 | 4.8 | 0.00 | 0.41 | 0.05 | 89 | 1022.3 |
| 20260901102510 | 14 | 199 | 1.6 | 4.8 | 0.00 | 0.41 | 0.05 | 89 | 1022.3 |
| 20260901102422 | 14 | 199 | 1.6 | 3.2 | 0.00 | 0.41 | 0.05 | 89 | 1022.2 |
| 20260901102415 | 14 | 199 | 1.6 | 4.8 | 0.00 | 0.41 | 0.05 | 89 | 1022.3 |
| 20260901102209 | 14 | 199 | 1.6 | 4.8 | 0.00 | 0.41 | 0.05 | 89 | 1022.2 |
| 20260901102111 | 14 | 199 | 1.6 | 4.8 | 0.00 | 0.41 | 0.05 | 89 | 1022.2 |
| 20260901102010 | 14 | 199 | 1.6 | 4.8 | 0.00 | 0.41 | 0.05 | 89 | 1022.3 |
| 20260901101909 | 14 | 199 | 1.6 | 4.8 | 0.00 | 0.41 | 0.05 | 89 | 1022.2 |
| 20260901101810 | 14 | 199 | 1.6 | 4.8 | 0.00 | 0.41 | 0.05 | 89 | 1022.2 |
| 20260901101710 | 14 | 199 | 1.6 | 4.8 | 0.00 | 0.41 | 0.05 | 89 | 1022.3 |
| 20260901101610 | 14 | 199 | 1.6 | 4.8 | 0.00 | 0.41 | 0.05 | 88 | 1022.4 |
| 20260901101510 | 14 | 199 | 1.6 | 4.8 | 0.00 | 0.41 | 0.05 | 88 | 1022.4 |
| 20260901101427 | 14 | 199 | 1.6 | 4.8 | 0.00 | 0.41 | 0.05 | 88 | 1022.4 |
| 20260901101310 | 14 | 199 | 1.6 | 3.2 | 0.00 | 0.41 | 0.05 | 88 | 1022.5 |
| 20260901101217 | 14 | 199 | 1.6 | 4.8 | 0.00 | 0.41 | 0.05 | 88 | 1022.5 |
| 20260901101006 | 14 | 199 | 3.2 | 4.8 | 0.00 | 0.41 | 0.05 | 88 | 1022.5 |
| 20260901100925 | 14 | 199 | 3.2 | 4.8 | 0.00 | 0.41 | 0.05 | 88 | 1022.5 |
| 20260901100804 | 14 | 199 | 3.2 | 4.8 | 0.00 | 0.41 | 0.05 | 88 | 1022.5 |
| 20260901100715 | 14 | 199 | 3.2 | 6.4 | 0.00 | 0.41 | 0.05 | 88 | 1022.5 |
| 20260901100400 | 14 | 199 | 3.2 | 6.4 | 0.00 | 0.41 | 0.05 | 88 | 1022.5 |
| 20260901100318 | 14 | 199 | 3.2 | 6.4 | 0.00 | 0.41 | 0.05 | 88 | 1022.5 |
| 20260901100257 | 14 | 199 | 3.2 | 6.4 | 0.00 | 0.41 | 0.05 | 88 | 1022.5 |
| 20260901100158 | 14 | 199 | 4.8 | 6.4 | 0.00 | 0.41 | 0.05 | 88 | 1022.5 |
| 20260901100055 | 14 | 199 | 4.8 | 6.4 | 0.00 | 0.41 | 0.05 | 88 | 1022.5 |
| 20260901095952 | 14 | 199 | 4.8 | 6.4 | 0.00 | 0.41 | 0.05 | 88 | 1022.6 |
| 20260901095852 | 14 | 199 | 4.8 | 6.4 | 0.00 | 0.41 | 0.05 | 88 | 1022.5 |
| 20260901095818 | 14 | 199 | 4.8 | 6.4 | 0.00 | 0.41 | 0.05 | 88 | 1022.6 |
| 20260901095752 | 14 | 199 | 4.8 | 6.4 | 0.00 | 0.41 | 0.05 | 88 | 1022.6 |
| 20260901095650 | 14 | 199 | 4.8 | 6.4 | 0.00 | 0.41 | 0.05 | 88 | 1022.6 |
| 20260901095609 | 14 | 199 | 4.8 | 6.4 | 0.00 | 0.41 | 0.05 | 88 | 1022.6 |
| 20260901095349 | 14 | 199 | 3.2 | 4.8 | 0.00 | 0.41 | 0.05 | 88 | 1022.6 |
| 20260901095148 | 14 | 199 | 3.2 | 4.8 | 0.00 | 0.41 | 0.05 | 88 | 1022.6 |
| 20260901094938 | 14 | 199 | 3.2 | 4.8 | 0.00 | 0.41 | 0.05 | 88 | 1022.6 |
| 20260901094815 | 14 | 199 | 3.2 | 4.8 | 0.00 | 0.41 | 0.05 | 88 | 1022.6 |
| 20260901094736 | 14 | 199 | 3.2 | 4.8 | 0.00 | 0.41 | 0.05 | 88 | 1022.6 |
| 20260901094634 | 14 | 199 | 3.2 | 4.8 | 0.00 | 0.41 | 0.05 | 88 | 1022.6 |
| 20260901094533 | 14 | 199 | 3.2 | 4.8 | 0.00 | 0.41 | 0.05 | 88 | 1022.6 |
| 20260901094428 | 14 | 199 | 3.2 | 4.8 | 0.00 | 0.41 | 0.05 | 88 | 1022.6 |
| 20260901094420 | 15 | 199 | 3.2 | 6.4 | 0.00 | 0.41 | 0.05 | 88 | 1022.6 |
| 20260901094228 | 15 | 199 | 3.2 | 6.4 | 0.00 | 0.41 | 0.05 | 88 | 1022.8 |
| 20260901094133 | 15 | 199 | 3.2 | 6.4 | 0.00 | 0.41 | 0.05 | 88 | 1022.6 |
| 20260901093922 | 15 | 199 | 3.2 | 6.4 | 0.00 | 0.41 | 0.05 | 88 | 1022.6 |
| 20260901093814 | 15 | 199 | 3.2 | 6.4 | 0.00 | 0.41 | 0.05 | 88 | 1022.6 |
| 20260901093720 | 15 | 199 | 3.2 | 6.4 | 0.00 | 0.41 | 0.05 | 88 | 1022.6 |
| 20260901093620 | 15 | 199 | 3.2 | 6.4 | 0.00 | 0.41 | 0.05 | 88 | 1022.8 |
| 20260901093519 | 15 | 199 | 3.2 | 6.4 | 0.00 | 0.41 | 0.05 | 88 | 1022.8 |
| 20260901093425 | 15 | 199 | 3.2 | 6.4 | 0.00 | 0.41 | 0.05 | 88 | 1022.6 |
| 20260901093311 | 15 | 199 | 3.2 | 6.4 | 0.00 | 0.41 | 0.05 | 88 | 1022.8 |
| 20260901093215 | 15 | 199 | 3.2 | 4.8 | 0.00 | 0.41 | 0.05 | 88 | 1022.6 |
| 20260901093114 | 15 | 290 | 3.2 | 4.8 | 0.00 | 0.41 | 0.05 | 88 | 1022.8 |
| 20260901093014 | 15 | 290 | 3.2 | 4.8 | 0.00 | 0.41 | 0.05 | 88 | 1022.8 |
| 20260901092912 | 15 | 290 | 3.2 | 4.8 | 0.00 | 0.41 | 0.05 | 88 | 1022.8 |
| 20260901092810 | 15 | 290 | 3.2 | 4.8 | 0.00 | 0.41 | 0.05 | 88 | 1022.8 |
| 20260901092710 | 15 | 290 | 3.2 | 4.8 | 0.00 | 0.41 | 0.05 | 88 | 1022.9 |
| 20260901092608 | 15 | 290 | 3.2 | 4.8 | 0.00 | 0.41 | 0.05 | 88 | 1022.9 |
| 20260901092504 | 15 | 290 | 3.2 | 4.8 | 0.00 | 0.41 | 0.05 | 88 | 1022.9 |
| 20260901092400 | 15 | 290 | 1.6 | 4.8 | 0.00 | 0.41 | 0.05 | 88 | 1023.0 |
| 20260901092311 | 15 | 290 | 1.6 | 4.8 | 0.00 | 0.41 | 0.05 | 88 | 1022.9 |
| 20260901092258 | 15 | 290 | 1.6 | 4.8 | 0.00 | 0.41 | 0.05 | 88 | 1022.9 |
| 20260901092158 | 15 | 290 | 1.6 | 4.8 | 0.00 | 0.41 | 0.05 | 88 | 1022.9 |
| 20260901092102 | 15 | 290 | 1.6 | 4.8 | 0.00 | 0.41 | 0.05 | 88 | 1022.9 |
| 20260901091854 | 15 | 290 | 1.6 | 3.2 | 0.00 | 0.41 | 0.05 | 88 | 1022.9 |
| 20260901091650 | 15 | 290 | 1.6 | 3.2 | 0.00 | 0.41 | 0.05 | 88 | 1023.0 |
| 20260901091550 | 15 | 290 | 1.6 | 3.2 | 0.00 | 0.41 | 0.05 | 88 | 1022.9 |
| 20260901091449 | 15 | 290 | 1.6 | 3.2 | 0.00 | 0.41 | 0.05 | 88 | 1022.9 |
| 20260901091349 | 15 | 290 | 1.6 | 3.2 | 0.00 | 0.41 | 0.05 | 88 | 1022.9 |
| 20260901091305 | 15 | 290 | 1.6 | 4.8 | 0.00 | 0.41 | 0.05 | 88 | 1022.9 |
| 20260901091248 | 15 | 290 | 1.6 | 4.8 | 0.00 | 0.41 | 0.05 | 88 | 1022.9 |
| 20260901091149 | 15 | 290 | 1.6 | 4.8 | 0.00 | 0.41 | 0.05 | 88 | 1022.9 |
| 20260901091045 | 15 | 290 | 1.6 | 4.8 | 0.00 | 0.41 | 0.05 | 88 | 1022.9 |
| 20260901090943 | 15 | 290 | 1.6 | 4.8 | 0.00 | 0.41 | 0.05 | 88 | 1022.9 |
| 20260901090849 | 15 | 290 | 1.6 | 4.8 | 0.00 | 0.41 | 0.05 | 88 | 1023.0 |
| 20260901090842 | 15 | 290 | 1.6 | 4.8 | 0.00 | 0.41 | 0.05 | 88 | 1023.0 |
| 20260901090637 | 15 | 290 | 3.2 | 4.8 | 0.00 | 0.41 | 0.05 | 88 | 1023.0 |
| 20260901090546 | 15 | 290 | 3.2 | 4.8 | 0.00 | 0.41 | 0.05 | 87 | 1023.1 |
| 20260901090334 | 15 | 290 | 1.6 | 4.8 | 0.00 | 0.41 | 0.05 | 87 | 1023.1 |
| 20260901090252 | 15 | 290 | 1.6 | 4.8 | 0.00 | 0.41 | 0.05 | 87 | 1023.1 |
| 20260901090234 | 15 | 290 | 1.6 | 4.8 | 0.00 | 0.41 | 0.05 | 87 | 1023.0 |
| 20260901090133 | 15 | 290 | 1.6 | 3.2 | 0.00 | 0.41 | 0.05 | 87 | 1023.0 |
| 20260901090033 | 15 | 290 | 1.6 | 3.2 | 0.00 | 0.41 | 0.05 | 87 | 1023.0 |
| 20260901085931 | 15 | 290 | 1.6 | 3.2 | 0.00 | 0.41 | 0.05 | 87 | 1023.0 |
| 20260901085841 | 15 | 290 | 1.6 | 3.2 | 0.00 | 0.41 | 0.05 | 87 | 1023.0 |
| 20260901085835 | 15 | 290 | 1.6 | 3.2 | 0.00 | 0.41 | 0.05 | 87 | 1023.0 |
| 20260901085631 | 15 | 290 | 1.6 | 3.2 | 0.00 | 0.41 | 0.05 | 87 | 1023.1 |
| 20260901085528 | 15 | 290 | 1.6 | 3.2 | 0.00 | 0.41 | 0.05 | 88 | 1023.0 |
| 20260901085426 | 15 | 290 | 0.0 | 3.2 | 0.00 | 0.41 | 0.05 | 88 | 1023.0 |
| 20260901085322 | 15 | 290 | 0.0 | 3.2 | 0.00 | 0.41 | 0.05 | 88 | 1023.0 |
| 20260901085220 | 15 | 290 | 0.0 | 3.2 | 0.00 | 0.41 | 0.05 | 88 | 1023.0 |
| 20260901085120 | 15 | 290 | 0.0 | 3.2 | 0.00 | 0.41 | 0.05 | 88 | 1023.0 |
| 20260901085020 | 15 | 290 | 0.0 | 3.2 | 0.00 | 0.41 | 0.05 | 88 | 1023.1 |
| 20260901084920 | 15 | 290 | 0.0 | 1.6 | 0.00 | 0.41 | 0.05 | 88 | 1023.1 |
| 20260901084818 | 15 | 290 | 0.0 | 1.6 | 0.00 | 0.41 | 0.05 | 88 | 1023.1 |
| 20260901084718 | 15 | 290 | 0.0 | 1.6 | 0.00 | 0.41 | 0.05 | 88 | 1023.0 |
| 20260901084617 | 15 | 290 | 0.0 | 3.2 | 0.00 | 0.41 | 0.05 | 88 | 1023.0 |
| 20260901084516 | 15 | 290 | 0.0 | 3.2 | 0.00 | 0.41 | 0.05 | 88 | 1023.1 |
| 20260901084413 | 15 | 290 | 0.0 | 3.2 | 0.00 | 0.41 | 0.05 | 88 | 1023.1 |
| 20260901084313 | 15 | 290 | 0.0 | 3.2 | 0.00 | 0.41 | 0.05 | 88 | 1023.0 |
| 20260901084211 | 15 | 290 | 0.0 | 3.2 | 0.00 | 0.41 | 0.05 | 88 | 1023.1 |
| 20260901084112 | 15 | 290 | 1.6 | 3.2 | 0.00 | 0.41 | 0.05 | 88 | 1023.1 |
| 20260901084010 | 15 | 290 | 1.6 | 3.2 | 0.00 | 0.41 | 0.05 | 88 | 1023.1 |
| 20260901083907 | 15 | 290 | 1.6 | 3.2 | 0.00 | 0.41 | 0.05 | 88 | 1023.1 |
| 20260901083804 | 15 | 290 | 1.6 | 3.2 | 0.00 | 0.41 | 0.05 | 88 | 1023.2 |
| 20260901083724 | 15 | 290 | 1.6 | 3.2 | 0.00 | 0.41 | 0.05 | 88 | 1023.2 |
| 20260901083703 | 15 | 290 | 1.6 | 3.2 | 0.00 | 0.41 | 0.05 | 88 | 1023.2 |
| 20260901083601 | 15 | 290 | 1.6 | 3.2 | 0.00 | 0.41 | 0.05 | 88 | 1023.1 |
| 20260901083502 | 15 | 290 | 1.6 | 3.2 | 0.00 | 0.41 | 0.05 | 88 | 1023.2 |
| 20260901083401 | 15 | 290 | 1.6 | 3.2 | 0.00 | 0.41 | 0.05 | 88 | 1023.2 |
| 20260901083300 | 15 | 290 | 1.6 | 3.2 | 0.00 | 0.41 | 0.05 | 88 | 1023.2 |
| 20260901083216 | 15 | 290 | 1.6 | 3.2 | 0.00 | 0.41 | 0.05 | 87 | 1023.2 |
| 20260901083206 | 15 | 290 | 1.6 | 3.2 | 0.00 | 0.41 | 0.05 | 87 | 1023.2 |
| 20260901082958 | 15 | 290 | 1.6 | 4.8 | 0.00 | 0.41 | 0.05 | 87 | 1023.1 |
| 20260901082855 | 15 | 290 | 1.6 | 6.4 | 0.00 | 0.41 | 0.05 | 87 | 1023.1 |
| 20260901082756 | 15 | 290 | 1.6 | 6.4 | 0.00 | 0.41 | 0.05 | 87 | 1023.2 |
| 20260901082711 | 15 | 290 | 3.2 | 6.4 | 0.00 | 0.41 | 0.05 | 87 | 1023.2 |
| 20260901082701 | 15 | 290 | 3.2 | 6.4 | 0.00 | 0.41 | 0.05 | 87 | 1023.2 |
| 20260901082451 | 15 | 290 | 3.2 | 6.4 | 0.00 | 0.41 | 0.05 | 88 | 1023.2 |
| 20260901082350 | 15 | 290 | 3.2 | 6.4 | 0.00 | 0.41 | 0.05 | 88 | 1023.2 |
| 20260901082249 | 15 | 290 | 3.2 | 6.4 | 0.00 | 0.41 | 0.05 | 87 | 1023.2 |
| 20260901082205 | 15 | 290 | 3.2 | 6.4 | 0.00 | 0.41 | 0.05 | 87 | 1023.2 |
| 20260901082147 | 15 | 290 | 3.2 | 6.4 | 0.00 | 0.41 | 0.05 | 87 | 1023.2 |
| 20260901082053 | 15 | 290 | 3.2 | 6.4 | 0.00 | 0.41 | 0.05 | 87 | 1023.1 |
| 20260901081844 | 15 | 290 | 3.2 | 6.4 | 0.00 | 0.41 | 0.05 | 87 | 1023.1 |
| 20260901081739 | 15 | 290 | 3.2 | 6.4 | 0.00 | 0.41 | 0.05 | 87 | 1023.2 |
| 20260901081705 | 15 | 290 | 3.2 | 6.4 | 0.00 | 0.41 | 0.05 | 87 | 1023.2 |
| 20260901081638 | 15 | 290 | 3.2 | 6.4 | 0.00 | 0.41 | 0.05 | 87 | 1023.2 |
| 20260901081537 | 15 | 290 | 3.2 | 6.4 | 0.00 | 0.41 | 0.05 | 87 | 1023.4 |
| 20260901081438 | 15 | 290 | 3.2 | 6.4 | 0.00 | 0.41 | 0.05 | 87 | 1023.4 |
| 20260901081337 | 15 | 290 | 3.2 | 6.4 | 0.00 | 0.41 | 0.05 | 87 | 1023.4 |
| 20260901081233 | 15 | 290 | 3.2 | 6.4 | 0.00 | 0.41 | 0.05 | 87 | 1023.4 |
| 20260901081203 | 15 | 290 | 3.2 | 6.4 | 0.00 | 0.41 | 0.05 | 87 | 1023.4 |
| 20260901081139 | 15 | 290 | 3.2 | 9.7 | 0.00 | 0.41 | 0.05 | 87 | 1023.4 |
| 20260901080932 | 15 | 290 | 4.8 | 11.3 | 0.00 | 0.41 | 0.05 | 88 | 1023.4 |
| 20260901080837 | 15 | 290 | 4.8 | 11.3 | 0.00 | 0.41 | 0.05 | 88 | 1023.4 |
| 20260901080702 | 15 | 260 | 4.8 | 11.3 | 0.00 | 0.41 | 0.05 | 88 | 1023.4 |
| 20260901080630 | 15 | 260 | 4.8 | 11.3 | 0.00 | 0.41 | 0.05 | 88 | 1023.5 |
| 20260901080530 | 15 | 260 | 4.8 | 11.3 | 0.00 | 0.41 | 0.05 | 88 | 1023.5 |
| 20260901080428 | 15 | 268 | 4.8 | 11.3 | 0.00 | 0.41 | 0.05 | 88 | 1023.4 |
| 20260901080330 | 15 | 268 | 4.8 | 11.3 | 0.00 | 0.41 | 0.05 | 88 | 1023.4 |
| 20260901080202 | 15 | 273 | 4.8 | 11.3 | 0.00 | 0.41 | 0.05 | 88 | 1023.4 |
| 20260901080122 | 15 | 273 | 4.8 | 11.3 | 0.00 | 0.41 | 0.05 | 88 | 1023.4 |
| 20260901080027 | 15 | 284 | 4.8 | 11.3 | 0.00 | 0.41 | 0.05 | 88 | 1023.5 |
| 20260901075821 | 15 | 271 | 4.8 | 9.7 | 0.03 | 0.41 | 0.05 | 88 | 1023.4 |
| 20260901075701 | 15 | 283 | 4.8 | 9.7 | 0.03 | 0.41 | 0.05 | 88 | 1023.4 |
| 20260901075612 | 15 | 269 | 4.8 | 9.7 | 0.03 | 0.41 | 0.05 | 88 | 1023.5 |
| 20260901075512 | 15 | 250 | 4.8 | 9.7 | 0.03 | 0.41 | 0.05 | 88 | 1023.6 |
| 20260901075411 | 15 | 248 | 4.8 | 9.7 | 0.03 | 0.41 | 0.05 | 88 | 1023.6 |
| 20260901075315 | 15 | 248 | 4.8 | 9.7 | 0.03 | 0.41 | 0.05 | 88 | 1023.6 |
| 20260901075201 | 15 | 248 | 4.8 | 9.7 | 0.03 | 0.41 | 0.05 | 88 | 1023.6 |
| 20260901075113 | 15 | 248 | 6.4 | 9.7 | 0.03 | 0.41 | 0.05 | 89 | 1023.7 |
| 20260901074905 | 15 | 262 | 4.8 | 9.7 | 0.03 | 0.41 | 0.05 | 89 | 1023.8 |
| 20260901074810 | 15 | 245 | 4.8 | 9.7 | 0.03 | 0.41 | 0.05 | 89 | 1023.8 |
| 20260901074700 | 15 | 234 | 4.8 | 9.7 | 0.03 | 0.41 | 0.05 | 89 | 1023.8 |
| 20260901074600 | 15 | 248 | 3.2 | 9.7 | 0.03 | 0.41 | 0.05 | 89 | 1023.8 |
| 20260901074507 | 15 | 232 | 3.2 | 9.7 | 0.03 | 0.41 | 0.05 | 89 | 1023.7 |
| 20260901074259 | 15 | 268 | 3.2 | 6.4 | 0.03 | 0.41 | 0.05 | 89 | 1023.7 |
| 20260901074201 | 15 | 252 | 3.2 | 6.4 | 0.03 | 0.41 | 0.05 | 89 | 1023.7 |
| 20260901074154 | 15 | 252 | 3.2 | 6.4 | 0.03 | 0.41 | 0.05 | 89 | 1023.7 |
| 20260901074054 | 15 | 269 | 3.2 | 4.8 | 0.03 | 0.41 | 0.05 | 89 | 1023.7 |
| 20260901073954 | 15 | 271 | 3.2 | 4.8 | 0.03 | 0.41 | 0.05 | 89 | 1023.7 |
| 20260901073853 | 15 | 267 | 3.2 | 4.8 | 0.03 | 0.41 | 0.05 | 89 | 1023.7 |
| 20260901073754 | 15 | 302 | 3.2 | 4.8 | 0.03 | 0.41 | 0.05 | 89 | 1023.8 |
| 20260901073701 | 15 | 302 | 3.2 | 4.8 | 0.03 | 0.41 | 0.05 | 89 | 1023.8 |
| 20260901073648 | 15 | 302 | 3.2 | 4.8 | 0.03 | 0.41 | 0.05 | 89 | 1023.8 |
| 20260901073548 | 15 | 302 | 3.2 | 4.8 | 0.03 | 0.41 | 0.05 | 89 | 1023.8 |
| 20260901073455 | 15 | 302 | 3.2 | 4.8 | 0.03 | 0.41 | 0.05 | 89 | 1023.8 |
| 20260901073308 | 15 | 327 | 3.2 | 4.8 | 0.03 | 0.41 | 0.05 | 88 | 1023.8 |
| 20260901073147 | 15 | 327 | 1.6 | 4.8 | 0.03 | 0.41 | 0.05 | 88 | 1023.8 |
| 20260901073046 | 15 | 327 | 1.6 | 4.8 | 0.03 | 0.41 | 0.05 | 88 | 1023.8 |
| 20260901072946 | 15 | 327 | 1.6 | 4.8 | 0.03 | 0.41 | 0.05 | 88 | 1023.8 |
| 20260901072844 | 15 | 327 | 1.6 | 4.8 | 0.03 | 0.41 | 0.05 | 88 | 1023.8 |
| 20260901072741 | 15 | 259 | 1.6 | 4.8 | 0.03 | 0.41 | 0.05 | 88 | 1023.8 |
| 20260901072702 | 15 | 259 | 1.6 | 4.8 | 0.03 | 0.41 | 0.05 | 88 | 1023.8 |
| 20260901072646 | 15 | 259 | 1.6 | 4.8 | 0.03 | 0.41 | 0.05 | 88 | 1023.8 |
| 20260901072439 | 15 | 259 | 1.6 | 4.8 | 0.03 | 0.41 | 0.05 | 88 | 1023.8 |
| 20260901072338 | 15 | 259 | 1.6 | 4.8 | 0.03 | 0.41 | 0.05 | 88 | 1023.8 |
| 20260901072309 | 15 | 259 | 1.6 | 4.8 | 0.03 | 0.41 | 0.05 | 88 | 1023.8 |
| 20260901072137 | 15 | 259 | 1.6 | 4.8 | 0.03 | 0.41 | 0.05 | 88 | 1023.8 |
| 20260901071944 | 16 | 259 | 0.0 | 4.8 | 0.03 | 0.41 | 0.05 | 88 | 1023.8 |
| 20260901071701 | 16 | 94 | 0.0 | 3.2 | 0.03 | 0.41 | 0.05 | 88 | 1023.8 |
| 20260901071629 | 16 | 94 | 0.0 | 3.2 | 0.03 | 0.41 | 0.05 | 88 | 1023.8 |
| 20260901071529 | 16 | 94 | 1.6 | 3.2 | 0.03 | 0.41 | 0.05 | 88 | 1023.8 |
| 20260901071430 | 16 | 94 | 1.6 | 4.8 | 0.05 | 0.41 | 0.05 | 88 | 1023.9 |
| 20260901071327 | 16 | 94 | 1.6 | 4.8 | 0.05 | 0.41 | 0.05 | 88 | 1023.9 |
| 20260901071306 | 16 | 94 | 1.6 | 4.8 | 0.05 | 0.41 | 0.05 | 88 | 1023.9 |
| 20260901071127 | 16 | 94 | 1.6 | 4.8 | 0.05 | 0.41 | 0.05 | 88 | 1023.9 |
| 20260901071025 | 16 | 94 | 1.6 | 4.8 | 0.05 | 0.41 | 0.05 | 88 | 1023.9 |
| 20260901070925 | 16 | 94 | 1.6 | 4.8 | 0.05 | 0.41 | 0.05 | 88 | 1023.8 |
| 20260901070823 | 16 | 94 | 1.6 | 4.8 | 0.05 | 0.41 | 0.05 | 88 | 1023.8 |
| 20260901070723 | 16 | 94 | 1.6 | 4.8 | 0.05 | 0.41 | 0.05 | 88 | 1023.9 |
| 20260901070658 | 16 | 94 | 1.6 | 4.8 | 0.05 | 0.41 | 0.05 | 88 | 1023.9 |
| 20260901070626 | 16 | 94 | 3.2 | 4.8 | 0.05 | 0.41 | 0.05 | 88 | 1023.9 |
| 20260901070419 | 16 | 94 | 1.6 | 4.8 | 0.05 | 0.41 | 0.05 | 88 | 1023.9 |
| 20260901070317 | 16 | 94 | 1.6 | 4.8 | 0.05 | 0.41 | 0.05 | 88 | 1023.9 |
| 20260901070217 | 16 | 94 | 3.2 | 6.4 | 0.05 | 0.41 | 0.05 | 87 | 1023.9 |
| 20260901070155 | 16 | 94 | 3.2 | 6.4 | 0.05 | 0.41 | 0.05 | 87 | 1023.9 |
| 20260901070115 | 16 | 94 | 3.2 | 6.4 | 0.05 | 0.41 | 0.05 | 87 | 1024.1 |
| 20260901070020 | 16 | 187 | 3.2 | 8.0 | 0.05 | 0.41 | 0.05 | 87 | 1024.2 |
| 20260901065815 | 16 | 218 | 3.2 | 9.7 | 0.03 | 0.38 | 0.05 | 87 | 1024.3 |
| 20260901065713 | 16 | 218 | 4.8 | 9.7 | 0.03 | 0.38 | 0.03 | 87 | 1024.3 |
| 20260901065654 | 16 | 218 | 4.8 | 9.7 | 0.03 | 0.38 | 0.03 | 87 | 1024.3 |
| 20260901065613 | 16 | 218 | 4.8 | 9.7 | 0.03 | 0.38 | 0.03 | 87 | 1024.3 |
| 20260901065513 | 16 | 218 | 4.8 | 9.7 | 0.03 | 0.38 | 0.03 | 87 | 1024.4 |
| 20260901065414 | 15 | 218 | 4.8 | 9.7 | 0.03 | 0.38 | 0.03 | 87 | 1024.4 |
| 20260901065318 | 15 | 219 | 4.8 | 9.7 | 0.03 | 0.38 | 0.03 | 87 | 1024.4 |
| 20260901065151 | 15 | 215 | 4.8 | 9.7 | 0.03 | 0.38 | 0.03 | 86 | 1024.4 |
| 20260901065117 | 15 | 200 | 4.8 | 9.7 | 0.03 | 0.38 | 0.03 | 86 | 1024.4 |
| 20260901064916 | 15 | 205 | 3.2 | 9.7 | 0.03 | 0.38 | 0.03 | 85 | 1024.3 |
| 20260901064708 | 15 | 172 | 1.6 | 9.7 | 0.03 | 0.38 | 0.03 | 85 | 1024.2 |
| 20260901064644 | 15 | 172 | 1.6 | 9.7 | 0.03 | 0.38 | 0.03 | 85 | 1024.2 |
| 20260901064607 | 15 | 172 | 1.6 | 8.0 | 0.03 | 0.38 | 0.03 | 85 | 1024.1 |
| 20260901064506 | 15 | 113 | 0.0 | 6.4 | 0.03 | 0.38 | 0.03 | 85 | 1023.9 |
| 20260901064406 | 15 | 113 | 0.0 | 4.8 | 0.03 | 0.38 | 0.03 | 85 | 1023.9 |
| 20260901064159 | 15 | 113 | 1.6 | 4.8 | 0.03 | 0.38 | 0.03 | 85 | 1023.8 |
| 20260901064139 | 16 | 113 | 1.6 | 4.8 | 0.03 | 0.38 | 0.03 | 85 | 1023.8 |
| 20260901064100 | 16 | 113 | 0.0 | 4.8 | 0.03 | 0.38 | 0.03 | 85 | 1023.8 |
| 20260901063959 | 16 | 113 | 0.0 | 4.8 | 0.03 | 0.38 | 0.03 | 85 | 1023.8 |
| 20260901063905 | 16 | 113 | 1.6 | 4.8 | 0.03 | 0.38 | 0.03 | 85 | 1023.8 |
| 20260901063633 | 16 | 113 | 1.6 | 6.4 | 0.03 | 0.38 | 0.03 | 85 | 1023.8 |
| 20260901063600 | 16 | 113 | 1.6 | 6.4 | 0.03 | 0.38 | 0.03 | 85 | 1023.8 |
| 20260901063355 | 16 | 113 | 3.2 | 6.4 | 0.03 | 0.38 | 0.03 | 85 | 1023.8 |
| 20260901063251 | 16 | 113 | 3.2 | 6.4 | 0.03 | 0.38 | 0.03 | 85 | 1023.8 |
| 20260901063234 | 16 | 113 | 3.2 | 6.4 | 0.03 | 0.38 | 0.03 | 85 | 1023.8 |
| 20260901063049 | 16 | 113 | 3.2 | 6.4 | 0.03 | 0.38 | 0.03 | 85 | 1023.8 |
| 20260901062948 | 16 | 113 | 3.2 | 6.4 | 0.03 | 0.38 | 0.03 | 85 | 1023.9 |
| 20260901062847 | 16 | 113 | 3.2 | 6.4 | 0.03 | 0.38 | 0.03 | 85 | 1023.9 |
| 20260901062746 | 16 | 113 | 3.2 | 6.4 | 0.03 | 0.38 | 0.03 | 84 | 1023.9 |
| 20260901062621 | 16 | 113 | 3.2 | 6.4 | 0.03 | 0.38 | 0.03 | 84 | 1023.9 |
| 20260901062543 | 16 | 113 | 3.2 | 6.4 | 0.03 | 0.38 | 0.03 | 84 | 1023.9 |
| 20260901062445 | 16 | 113 | 3.2 | 4.8 | 0.03 | 0.38 | 0.03 | 84 | 1023.9 |
| 20260901062243 | 16 | 113 | 3.2 | 6.4 | 0.03 | 0.38 | 0.03 | 84 | 1023.8 |
| 20260901062114 | 16 | 113 | 3.2 | 6.4 | 0.03 | 0.38 | 0.03 | 84 | 1023.8 |
| 20260901062035 | 16 | 113 | 3.2 | 6.4 | 0.03 | 0.38 | 0.03 | 84 | 1023.7 |
| 20260901061936 | 16 | 113 | 3.2 | 6.4 | 0.03 | 0.38 | 0.03 | 84 | 1023.8 |
| 20260901061834 | 16 | 113 | 4.8 | 6.4 | 0.03 | 0.38 | 0.03 | 84 | 1023.7 |
| 20260901061740 | 16 | 113 | 4.8 | 9.7 | 0.03 | 0.38 | 0.03 | 84 | 1023.8 |
| 20260901061610 | 16 | 113 | 4.8 | 9.7 | 0.03 | 0.38 | 0.03 | 84 | 1023.8 |
| 20260901061532 | 16 | 113 | 4.8 | 9.7 | 0.03 | 0.38 | 0.03 | 84 | 1023.8 |
| 20260901061429 | 16 | 113 | 4.8 | 9.7 | 0.00 | 0.36 | 0.00 | 84 | 1023.9 |
| 20260901061330 | 16 | 113 | 4.8 | 9.7 | 0.00 | 0.36 | 0.00 | 84 | 1023.8 |
| 20260901061103 | 16 | 98 | 4.8 | 9.7 | 0.00 | 0.36 | 0.00 | 84 | 1023.8 |
| 20260901061024 | 16 | 166 | 4.8 | 9.7 | 0.00 | 0.36 | 0.00 | 84 | 1024.1 |
| 20260901060923 | 16 | 166 | 4.8 | 9.7 | 0.00 | 0.36 | 0.00 | 84 | 1024.1 |
| 20260901060828 | 16 | 166 | 3.2 | 9.7 | 0.00 | 0.36 | 0.00 | 83 | 1024.3 |
| 20260901060622 | 16 | 166 | 3.2 | 8.0 | 0.00 | 0.36 | 0.00 | 83 | 1024.2 |
| 20260901060556 | 16 | 196 | 3.2 | 6.4 | 0.00 | 0.36 | 0.00 | 83 | 1024.2 |
| 20260901060520 | 16 | 196 | 3.2 | 6.4 | 0.00 | 0.36 | 0.00 | 83 | 1024.2 |
| 20260901060424 | 16 | 196 | 3.2 | 6.4 | 0.00 | 0.36 | 0.00 | 83 | 1024.2 |
| 20260901060216 | 16 | 303 | 3.2 | 6.4 | 0.00 | 0.36 | 0.00 | 83 | 1024.1 |
| 20260901060157 | 16 | 303 | 3.2 | 6.4 | 0.00 | 0.36 | 0.00 | 83 | 1023.9 |
| 20260901060013 | 16 | 303 | 3.2 | 6.4 | 0.00 | 0.36 | 0.00 | 83 | 1023.9 |
| 20260901055912 | 16 | 303 | 3.2 | 6.4 | 0.00 | 0.36 | 0.36 | 82 | 1023.9 |
| 20260901055817 | 16 | 303 | 3.2 | 6.4 | 0.00 | 0.36 | 0.36 | 82 | 1023.8 |
| 20260901055618 | 16 | 303 | 3.2 | 6.4 | 0.00 | 0.36 | 0.36 | 82 | 1023.7 |
| 20260901055612 | 16 | 303 | 3.2 | 6.4 | 0.00 | 0.36 | 0.36 | 82 | 1023.7 |
| 20260901055405 | 16 | 303 | 3.2 | 6.4 | 0.00 | 0.36 | 0.36 | 83 | 1023.7 |
| 20260901055306 | 16 | 303 | 3.2 | 6.4 | 0.00 | 0.36 | 0.36 | 83 | 1023.7 |
| 20260901055204 | 16 | 303 | 3.2 | 6.4 | 0.00 | 0.36 | 0.36 | 83 | 1023.8 |
| 20260901055038 | 16 | 303 | 3.2 | 6.4 | 0.00 | 0.36 | 0.36 | 83 | 1023.7 |
| 20260901055002 | 16 | 303 | 3.2 | 6.4 | 0.00 | 0.36 | 0.36 | 83 | 1023.7 |
| 20260901054900 | 16 | 303 | 3.2 | 6.4 | 0.00 | 0.36 | 0.36 | 83 | 1023.7 |
| 20260901054805 | 16 | 303 | 3.2 | 6.4 | 0.00 | 0.36 | 0.36 | 83 | 1023.7 |
| 20260901054533 | 16 | 303 | 4.8 | 6.4 | 0.00 | 0.36 | 0.36 | 83 | 1023.7 |
| 20260901054456 | 16 | 303 | 4.8 | 6.4 | 0.00 | 0.36 | 0.36 | 83 | 1023.7 |
| 20260901054353 | 16 | 303 | 4.8 | 8.0 | 0.00 | 0.36 | 0.36 | 82 | 1023.6 |
| 20260901054250 | 16 | 303 | 4.8 | 8.0 | 0.00 | 0.36 | 0.36 | 82 | 1023.6 |
| 20260901054148 | 16 | 303 | 4.8 | 8.0 | 0.00 | 0.36 | 0.36 | 82 | 1023.6 |
| 20260901054059 | 16 | 303 | 4.8 | 8.0 | 0.00 | 0.36 | 0.36 | 82 | 1023.7 |
| 20260901054052 | 16 | 303 | 4.8 | 8.0 | 0.00 | 0.36 | 0.36 | 82 | 1023.6 |
| 20260901053847 | 16 | 303 | 3.2 | 8.0 | 0.00 | 0.36 | 0.36 | 82 | 1023.5 |
| 20260901053745 | 16 | 303 | 3.2 | 8.0 | 0.00 | 0.36 | 0.36 | 82 | 1023.5 |
| 20260901053646 | 16 | 303 | 3.2 | 8.0 | 0.00 | 0.36 | 0.36 | 82 | 1023.5 |
| 20260901053520 | 16 | 303 | 3.2 | 8.0 | 0.00 | 0.36 | 0.36 | 82 | 1023.5 |
| 20260901053449 | 16 | 303 | 3.2 | 8.0 | 0.00 | 0.36 | 0.36 | 82 | 1023.5 |
| 20260901053238 | 16 | 303 | 3.2 | 6.4 | 0.00 | 0.36 | 0.36 | 82 | 1023.5 |
| 20260901053135 | 16 | 303 | 3.2 | 6.4 | 0.00 | 0.36 | 0.36 | 82 | 1023.5 |
| 20260901053015 | 16 | 303 | 3.2 | 9.7 | 0.00 | 0.36 | 0.36 | 82 | 1023.5 |
| 20260901052936 | 16 | 303 | 3.2 | 9.7 | 0.00 | 0.36 | 0.36 | 82 | 1023.5 |
| 20260901052836 | 16 | 303 | 4.8 | 9.7 | 0.00 | 0.36 | 0.36 | 82 | 1023.5 |
| 20260901052731 | 16 | 303 | 4.8 | 9.7 | 0.00 | 0.36 | 0.36 | 82 | 1023.5 |
| 20260901052630 | 16 | 303 | 4.8 | 9.7 | 0.00 | 0.36 | 0.36 | 82 | 1023.5 |
| 20260901052615 | 16 | 303 | 4.8 | 9.7 | 0.00 | 0.36 | 0.36 | 82 | 1023.6 |
| 20260901052429 | 16 | 303 | 4.8 | 9.7 | 0.00 | 0.36 | 0.36 | 83 | 1023.6 |
| 20260901052329 | 16 | 303 | 4.8 | 9.7 | 0.00 | 0.36 | 0.36 | 83 | 1023.6 |
| 20260901052228 | 16 | 255 | 4.8 | 11.3 | 0.00 | 0.36 | 0.36 | 83 | 1023.6 |
| 20260901052128 | 16 | 308 | 4.8 | 11.3 | 0.00 | 0.36 | 0.36 | 83 | 1023.6 |
| 20260901052002 | 16 | 281 | 6.4 | 12.9 | 0.00 | 0.36 | 0.36 | 83 | 1023.6 |
| 20260901051938 | 16 | 281 | 6.4 | 12.9 | 0.00 | 0.36 | 0.36 | 83 | 1023.7 |
| 20260901051622 | 16 | 273 | 6.4 | 12.9 | 0.00 | 0.36 | 0.36 | 84 | 1023.6 |
| 20260901051520 | 16 | 270 | 6.4 | 12.9 | 0.00 | 0.36 | 0.36 | 84 | 1023.6 |
| 20260901051457 | 16 | 318 | 6.4 | 12.9 | 0.00 | 0.36 | 0.36 | 84 | 1023.6 |
| 20260901051421 | 16 | 318 | 6.4 | 12.9 | 0.00 | 0.36 | 0.36 | 84 | 1023.6 |
| 20260901051317 | 16 | 292 | 6.4 | 12.9 | 0.00 | 0.36 | 0.36 | 85 | 1023.6 |
| 20260901051219 | 16 | 267 | 6.4 | 12.9 | 0.00 | 0.36 | 0.36 | 85 | 1023.7 |
| 20260901051115 | 16 | 298 | 6.4 | 12.9 | 0.00 | 0.36 | 0.36 | 85 | 1023.7 |
| 20260901051059 | 16 | 296 | 6.4 | 12.9 | 0.00 | 0.36 | 0.36 | 85 | 1023.7 |
| 20260901050914 | 16 | 289 | 6.4 | 12.9 | 0.00 | 0.36 | 0.36 | 85 | 1023.7 |
| 20260901050811 | 16 | 284 | 6.4 | 12.9 | 0.00 | 0.36 | 0.36 | 85 | 1023.7 |
| 20260901050714 | 16 | 300 | 6.4 | 12.9 | 0.00 | 0.36 | 0.36 | 85 | 1023.7 |
| 20260901050506 | 16 | 304 | 6.4 | 12.9 | 0.00 | 0.36 | 0.36 | 86 | 1023.7 |
| 20260901050445 | 16 | 296 | 6.4 | 12.9 | 0.00 | 0.36 | 0.36 | 86 | 1023.7 |
| 20260901050406 | 16 | 298 | 6.4 | 12.9 | 0.00 | 0.36 | 0.36 | 86 | 1023.7 |
| 20260901050311 | 16 | 275 | 6.4 | 12.9 | 0.00 | 0.36 | 0.36 | 86 | 1023.7 |
| 20260901050104 | 16 | 306 | 6.4 | 12.9 | 0.00 | 0.36 | 0.36 | 86 | 1023.7 |
| 20260901050004 | 16 | 284 | 6.4 | 12.9 | 0.00 | 0.36 | 0.36 | 86 | 1023.7 |
| 20260901045943 | 16 | 284 | 6.4 | 12.9 | 0.00 | 0.36 | 0.36 | 86 | 1023.8 |
| 20260901045902 | 16 | 284 | 6.4 | 12.9 | 0.00 | 0.36 | 0.36 | 86 | 1023.8 |
| 20260901045759 | 16 | 292 | 4.8 | 12.9 | 0.00 | 0.36 | 0.36 | 86 | 1023.7 |
| 20260901045653 | 16 | 239 | 4.8 | 12.9 | 0.00 | 0.36 | 0.36 | 87 | 1023.8 |
| 20260901045554 | 16 | 271 | 4.8 | 11.3 | 0.00 | 0.36 | 0.36 | 87 | 1023.9 |
| 20260901045454 | 16 | 304 | 4.8 | 9.7 | 0.00 | 0.36 | 0.36 | 87 | 1023.8 |
| 20260901045432 | 16 | 269 | 4.8 | 9.7 | 0.00 | 0.36 | 0.36 | 87 | 1023.9 |
| 20260901045354 | 16 | 286 | 4.8 | 9.7 | 0.00 | 0.36 | 0.36 | 87 | 1023.9 |
| 20260901045254 | 16 | 284 | 3.2 | 8.0 | 0.00 | 0.36 | 0.36 | 88 | 1023.9 |
| 20260901045148 | 15 | 302 | 3.2 | 6.4 | 0.00 | 0.36 | 0.36 | 87 | 1023.9 |
| 20260901045055 | 15 | 302 | 3.2 | 6.4 | 0.00 | 0.36 | 0.36 | 87 | 1023.9 |
| 20260901044927 | 15 | 308 | 3.2 | 6.4 | 0.00 | 0.36 | 0.36 | 87 | 1023.9 |
| 20260901044854 | 15 | 308 | 3.2 | 6.4 | 0.00 | 0.36 | 0.36 | 87 | 1023.9 |
| 20260901044646 | 15 | 311 | 3.2 | 6.4 | 0.00 | 0.36 | 0.36 | 87 | 1023.8 |
| 20260901044545 | 15 | 311 | 3.2 | 6.4 | 0.00 | 0.36 | 0.36 | 87 | 1023.9 |
| 20260901044527 | 15 | 311 | 3.2 | 6.4 | 0.00 | 0.36 | 0.36 | 87 | 1023.9 |
| 20260901044341 | 15 | 311 | 3.2 | 6.4 | 0.00 | 0.36 | 0.36 | 87 | 1023.9 |
| 20260901044241 | 15 | 311 | 4.8 | 6.4 | 0.00 | 0.36 | 0.36 | 87 | 1023.9 |
| 20260901044138 | 15 | 311 | 4.8 | 6.4 | 0.00 | 0.36 | 0.36 | 87 | 1024.1 |
| 20260901044037 | 15 | 311 | 4.8 | 6.4 | 0.00 | 0.36 | 0.36 | 87 | 1024.1 |
| 20260901043914 | 15 | 311 | 4.8 | 6.4 | 0.00 | 0.36 | 0.36 | 87 | 1024.1 |
| 20260901043842 | 15 | 311 | 4.8 | 6.4 | 0.00 | 0.36 | 0.36 | 87 | 1024.1 |
| 20260901043632 | 15 | 311 | 4.8 | 6.4 | 0.00 | 0.36 | 0.36 | 88 | 1024.1 |
| 20260901043551 | 15 | 311 | 4.8 | 6.4 | 0.00 | 0.36 | 0.36 | 88 | 1024.1 |
| 20260901043544 | 15 | 311 | 4.8 | 6.4 | 0.00 | 0.36 | 0.36 | 88 | 1024.1 |
| 20260901043229 | 15 | 311 | 4.8 | 6.4 | 0.00 | 0.36 | 0.36 | 88 | 1024.1 |
| 20260901043127 | 15 | 311 | 4.8 | 6.4 | 0.00 | 0.36 | 0.36 | 88 | 1024.1 |
| 20260901043028 | 15 | 311 | 4.8 | 6.4 | 0.00 | 0.36 | 0.36 | 88 | 1024.1 |
| 20260901042903 | 15 | 311 | 3.2 | 6.4 | 0.00 | 0.36 | 0.36 | 88 | 1024.1 |
| 20260901042826 | 15 | 311 | 3.2 | 6.4 | 0.00 | 0.36 | 0.36 | 88 | 1024.1 |
| 20260901042723 | 15 | 311 | 3.2 | 6.4 | 0.00 | 0.36 | 0.36 | 88 | 1024.2 |
| 20260901042628 | 15 | 311 | 3.2 | 6.4 | 0.00 | 0.36 | 0.36 | 88 | 1024.1 |
| 20260901042421 | 15 | 311 | 1.6 | 6.4 | 0.00 | 0.36 | 0.36 | 88 | 1024.2 |
| 20260901042356 | 15 | 311 | 1.6 | 6.4 | 0.00 | 0.36 | 0.36 | 88 | 1024.2 |
| 20260901042318 | 15 | 311 | 1.6 | 6.4 | 0.00 | 0.36 | 0.36 | 88 | 1024.2 |
| 20260901042219 | 15 | 311 | 1.6 | 6.4 | 0.00 | 0.36 | 0.36 | 88 | 1024.2 |
| 20260901042123 | 15 | 311 | 0.0 | 6.4 | 0.00 | 0.36 | 0.36 | 88 | 1024.1 |
| 20260901041925 | 15 | 311 | 0.0 | 3.2 | 0.00 | 0.36 | 0.36 | 88 | 1024.2 |
| 20260901041918 | 15 | 311 | 0.0 | 3.2 | 0.00 | 0.36 | 0.36 | 88 | 1024.2 |
| 20260901041711 | 15 | 311 | 0.0 | 3.2 | 0.00 | 0.36 | 0.36 | 88 | 1024.2 |
| 20260901041612 | 15 | 311 | 0.0 | 3.2 | 0.00 | 0.36 | 0.36 | 88 | 1024.2 |
| 20260901041510 | 15 | 311 | 1.6 | 3.2 | 0.00 | 0.36 | 0.36 | 88 | 1024.2 |
| 20260901041410 | 15 | 311 | 1.6 | 3.2 | 0.00 | 0.36 | 0.36 | 88 | 1024.2 |
| 20260901041345 | 15 | 311 | 1.6 | 3.2 | 0.00 | 0.36 | 0.36 | 88 | 1024.2 |
| 20260901041307 | 15 | 311 | 1.6 | 3.2 | 0.00 | 0.36 | 0.36 | 88 | 1024.1 |
| 20260901041205 | 15 | 311 | 1.6 | 4.8 | 0.00 | 0.36 | 0.36 | 88 | 1024.2 |
| 20260901041106 | 15 | 311 | 1.6 | 4.8 | 0.00 | 0.36 | 0.36 | 88 | 1024.2 |
| 20260901041004 | 15 | 311 | 1.6 | 4.8 | 0.00 | 0.36 | 0.36 | 87 | 1024.1 |
| 20260901040904 | 15 | 311 | 1.6 | 4.8 | 0.00 | 0.36 | 0.36 | 87 | 1024.1 |
| 20260901040839 | 15 | 311 | 1.6 | 4.8 | 0.00 | 0.36 | 0.36 | 87 | 1024.1 |
| 20260901040802 | 15 | 311 | 1.6 | 4.8 | 0.00 | 0.36 | 0.36 | 87 | 1024.1 |
| 20260901040659 | 15 | 311 | 1.6 | 4.8 | 0.00 | 0.36 | 0.36 | 87 | 1024.1 |
| 20260901040554 | 16 | 311 | 1.6 | 4.8 | 0.00 | 0.36 | 0.36 | 87 | 1024.1 |
| 20260901040453 | 16 | 311 | 1.6 | 4.8 | 0.00 | 0.36 | 0.36 | 87 | 1023.9 |
| 20260901040353 | 16 | 311 | 1.6 | 4.8 | 0.00 | 0.36 | 0.36 | 87 | 1023.9 |
| 20260901040333 | 16 | 311 | 3.2 | 4.8 | 0.00 | 0.36 | 0.36 | 87 | 1023.9 |
| 20260901040255 | 16 | 311 | 3.2 | 4.8 | 0.00 | 0.36 | 0.36 | 88 | 1023.9 |
| 20260901040154 | 16 | 311 | 3.2 | 6.4 | 0.00 | 0.36 | 0.36 | 87 | 1023.9 |
| 20260901040050 | 16 | 311 | 3.2 | 6.4 | 0.00 | 0.36 | 0.36 | 87 | 1023.9 |
| 20260901035947 | 16 | 311 | 3.2 | 6.4 | 0.00 | 0.36 | 0.36 | 87 | 1023.9 |
| 20260901035848 | 16 | 311 | 3.2 | 6.4 | 0.00 | 0.36 | 0.36 | 87 | 1023.9 |
| 20260901035826 | 16 | 311 | 3.2 | 6.4 | 0.00 | 0.36 | 0.36 | 87 | 1023.8 |
| 20260901035754 | 16 | 311 | 3.2 | 6.4 | 0.00 | 0.36 | 0.36 | 87 | 1023.8 |
| 20260901035542 | 16 | 311 | 3.2 | 6.4 | 0.03 | 0.36 | 0.36 | 87 | 1023.9 |
| 20260901035442 | 16 | 311 | 3.2 | 6.4 | 0.03 | 0.36 | 0.36 | 87 | 1024.1 |
| 20260901035321 | 16 | 311 | 3.2 | 6.4 | 0.03 | 0.36 | 0.36 | 87 | 1024.1 |
| 20260901035241 | 16 | 269 | 3.2 | 6.4 | 0.05 | 0.36 | 0.36 | 87 | 1024.2 |
| 20260901035141 | 16 | 269 | 3.2 | 6.4 | 0.05 | 0.36 | 0.36 | 87 | 1024.3 |
| 20260901035038 | 16 | 277 | 3.2 | 6.4 | 0.05 | 0.36 | 0.36 | 87 | 1024.4 |
| 20260901034938 | 16 | 242 | 3.2 | 11.3 | 0.08 | 0.36 | 0.36 | 87 | 1024.4 |
| 20260901034838 | 16 | 242 | 4.8 | 14.5 | 0.08 | 0.36 | 0.36 | 87 | 1024.4 |
| 20260901034815 | 16 | 16 | 4.8 | 14.5 | 0.08 | 0.36 | 0.36 | 87 | 1024.4 |
| 20260901034742 | 16 | 16 | 4.8 | 14.5 | 0.08 | 0.36 | 0.36 | 87 | 1024.3 |
| 20260901034535 | 16 | 16 | 6.4 | 14.5 | 0.10 | 0.36 | 0.36 | 87 | 1023.9 |
| 20260901034433 | 16 | 16 | 6.4 | 14.5 | 0.10 | 0.36 | 0.36 | 87 | 1023.7 |
| 20260901034309 | 16 | 16 | 6.4 | 14.5 | 0.10 | 0.36 | 0.36 | 87 | 1023.6 |
| 20260901034232 | 16 | 16 | 6.4 | 14.5 | 0.13 | 0.36 | 0.36 | 87 | 1023.4 |
| 20260901034133 | 16 | 13 | 8.0 | 14.5 | 0.13 | 0.36 | 0.36 | 87 | 1023.4 |
| 20260901034016 | 16 | 344 | 8.0 | 14.5 | 0.15 | 0.36 | 0.36 | 87 | 1023.5 |
| 20260901033724 | 16 | 0 | 6.4 | 12.9 | 0.15 | 0.36 | 0.36 | 87 | 1023.7 |
| 20260901033623 | 16 | 348 | 6.4 | 12.9 | 0.18 | 0.36 | 0.36 | 87 | 1023.8 |
| 20260901033525 | 16 | 5 | 6.4 | 12.9 | 0.20 | 0.36 | 0.36 | 87 | 1023.7 |
| 20260901033317 | 16 | 339 | 6.4 | 12.9 | 0.20 | 0.36 | 0.36 | 87 | 1023.8 |
| 20260901033257 | 16 | 326 | 6.4 | 12.9 | 0.20 | 0.36 | 0.36 | 87 | 1023.8 |
| 20260901033224 | 16 | 333 | 6.4 | 12.9 | 0.20 | 0.36 | 0.36 | 87 | 1023.9 |
| 20260901033015 | 16 | 335 | 6.4 | 12.9 | 0.20 | 0.36 | 0.36 | 87 | 1024.2 |
| 20260901032923 | 16 | 316 | 6.4 | 12.9 | 0.23 | 0.36 | 0.36 | 86 | 1024.2 |
| 20260901032750 | 16 | 319 | 6.4 | 12.9 | 0.23 | 0.36 | 0.36 | 86 | 1024.2 |
| 20260901032719 | 16 | 319 | 6.4 | 14.5 | 0.23 | 0.36 | 0.36 | 86 | 1024.2 |
| 20260901032406 | 16 | 319 | 8.0 | 14.5 | 0.25 | 0.36 | 0.36 | 86 | 1024.1 |
| 20260901032306 | 16 | 309 | 6.4 | 14.5 | 0.25 | 0.36 | 0.36 | 86 | 1024.1 |
| 20260901032245 | 16 | 306 | 6.4 | 14.5 | 0.25 | 0.36 | 0.36 | 86 | 1024.1 |
| 20260901032205 | 16 | 306 | 6.4 | 14.5 | 0.25 | 0.36 | 0.36 | 86 | 1024.1 |
| 20260901032107 | 16 | 300 | 6.4 | 14.5 | 0.25 | 0.36 | 0.36 | 86 | 1023.9 |
| 20260901031859 | 16 | 355 | 4.8 | 14.5 | 0.25 | 0.36 | 0.36 | 86 | 1023.7 |
| 20260901031845 | 16 | 355 | 3.2 | 14.5 | 0.28 | 0.36 | 0.36 | 86 | 1023.8 |
| 20260901031700 | 16 | 5 | 3.2 | 12.9 | 0.28 | 0.36 | 0.36 | 86 | 1023.9 |
| 20260901031559 | 16 | 0 | 1.6 | 12.9 | 0.28 | 0.36 | 0.36 | 86 | 1024.1 |
| 20260901031503 | 16 | 0 | 1.6 | 12.9 | 0.28 | 0.36 | 0.36 | 86 | 1024.2 |
| 20260901031255 | 16 | 355 | 0.0 | 6.4 | 0.28 | 0.36 | 0.36 | 85 | 1024.4 |
| 20260901031233 | 16 | 150 | 0.0 | 0.0 | 0.28 | 0.36 | 0.36 | 85 | 1024.5 |
| 20260901031155 | 16 | 150 | 0.0 | 0.0 | 0.28 | 0.36 | 0.36 | 85 | 1024.5 |
| 20260901031101 | 16 | 150 | 0.0 | 0.0 | 0.30 | 0.36 | 0.36 | 85 | 1024.5 |
| 20260901030851 | 16 | 150 | 0.0 | 0.0 | 0.30 | 0.36 | 0.36 | 84 | 1024.7 |
| 20260901030834 | 16 | 150 | 0.0 | 0.0 | 0.30 | 0.36 | 0.36 | 84 | 1024.7 |
| 20260901030649 | 16 | 150 | 0.0 | 0.0 | 0.33 | 0.36 | 0.36 | 84 | 1024.8 |
| 20260901030552 | 16 | 150 | 0.0 | 1.6 | 0.33 | 0.36 | 0.36 | 83 | 1024.8 |
| 20260901030342 | 16 | 150 | 0.0 | 3.2 | 0.33 | 0.36 | 0.36 | 83 | 1024.9 |
| 20260901030221 | 16 | 150 | 0.0 | 3.2 | 0.33 | 0.36 | 0.36 | 83 | 1024.9 |
| 20260901030143 | 16 | 150 | 0.0 | 3.2 | 0.33 | 0.36 | 0.36 | 83 | 1024.9 |
| 20260901030041 | 16 | 150 | 0.0 | 3.2 | 0.33 | 0.36 | 0.36 | 82 | 1025.0 |
| 20260901025938 | 17 | 150 | 1.6 | 3.2 | 0.33 | 0.36 | 0.36 | 82 | 1025.1 |
| 20260901025842 | 17 | 150 | 1.6 | 8.0 | 0.33 | 0.36 | 0.36 | 81 | 1025.1 |
| 20260901025714 | 17 | 150 | 1.6 | 8.0 | 0.33 | 0.36 | 0.36 | 81 | 1025.1 |
| 20260901025635 | 17 | 150 | 3.2 | 8.0 | 0.33 | 0.36 | 0.36 | 81 | 1025.1 |
| 20260901025542 | 17 | 150 | 3.2 | 8.0 | 0.30 | 0.33 | 0.33 | 81 | 1025.2 |
| 20260901025333 | 17 | 150 | 3.2 | 8.0 | 0.30 | 0.33 | 0.33 | 80 | 1025.5 |
| 20260901025233 | 17 | 150 | 4.8 | 8.0 | 0.28 | 0.30 | 0.33 | 80 | 1025.5 |
| 20260901025209 | 17 | 150 | 4.8 | 8.0 | 0.28 | 0.30 | 0.30 | 80 | 1025.5 |
| 20260901025132 | 17 | 150 | 4.8 | 8.0 | 0.28 | 0.30 | 0.30 | 80 | 1025.5 |
| 20260901025037 | 17 | 150 | 4.8 | 8.0 | 0.28 | 0.30 | 0.30 | 80 | 1025.6 |
| 20260901024835 | 17 | 160 | 4.8 | 9.7 | 0.25 | 0.28 | 0.28 | 79 | 1025.6 |
| 20260901024703 | 17 | 160 | 4.8 | 9.7 | 0.23 | 0.25 | 0.28 | 79 | 1025.6 |
| 20260901024630 | 17 | 166 | 4.8 | 9.7 | 0.23 | 0.25 | 0.28 | 79 | 1025.6 |
| 20260901024428 | 17 | 167 | 4.8 | 9.7 | 0.23 | 0.25 | 0.25 | 78 | 1025.5 |
| 20260901024222 | 17 | 167 | 4.8 | 9.7 | 0.20 | 0.23 | 0.25 | 78 | 1025.5 |
| 20260901024157 | 17 | 167 | 4.8 | 9.7 | 0.20 | 0.23 | 0.23 | 78 | 1025.5 |
| 20260901024120 | 17 | 192 | 4.8 | 9.7 | 0.20 | 0.23 | 0.23 | 77 | 1025.5 |
| 20260901024017 | 17 | 192 | 4.8 | 9.7 | 0.20 | 0.23 | 0.23 | 77 | 1025.5 |
| 20260901023911 | 17 | 186 | 4.8 | 9.7 | 0.18 | 0.20 | 0.20 | 77 | 1025.5 |
| 20260901023811 | 18 | 191 | 6.4 | 9.7 | 0.18 | 0.20 | 0.20 | 76 | 1025.5 |
| 20260901023712 | 18 | 163 | 6.4 | 9.7 | 0.18 | 0.20 | 0.20 | 76 | 1025.5 |
| 20260901023650 | 18 | 186 | 6.4 | 9.7 | 0.18 | 0.20 | 0.20 | 76 | 1025.5 |
| 20260901023612 | 18 | 180 | 6.4 | 9.7 | 0.15 | 0.18 | 0.18 | 76 | 1025.5 |
| 20260901023511 | 18 | 167 | 6.4 | 9.7 | 0.13 | 0.15 | 0.18 | 76 | 1025.4 |
| 20260901023416 | 18 | 167 | 6.4 | 9.7 | 0.13 | 0.15 | 0.15 | 76 | 1025.4 |
| 20260901023218 | 18 | 184 | 6.4 | 12.9 | 0.13 | 0.15 | 0.15 | 74 | 1025.4 |
| 20260901023211 | 18 | 182 | 6.4 | 12.9 | 0.13 | 0.15 | 0.15 | 74 | 1025.2 |
| 20260901023008 | 18 | 182 | 8.0 | 16.1 | 0.10 | 0.13 | 0.15 | 74 | 1025.2 |
| 20260901022800 | 18 | 166 | 8.0 | 16.1 | 0.10 | 0.13 | 0.13 | 73 | 1025.1 |
| 20260901022711 | 18 | 170 | 8.0 | 16.1 | 0.10 | 0.13 | 0.13 | 72 | 1025.0 |
| 20260901022704 | 18 | 171 | 8.0 | 16.1 | 0.10 | 0.13 | 0.13 | 72 | 1024.9 |
| 20260901022459 | 18 | 163 | 8.0 | 16.1 | 0.08 | 0.10 | 0.13 | 72 | 1024.9 |
| 20260901022400 | 18 | 175 | 9.7 | 16.1 | 0.08 | 0.10 | 0.10 | 71 | 1024.9 |
| 20260901022257 | 18 | 163 | 9.7 | 17.7 | 0.08 | 0.10 | 0.10 | 71 | 1024.9 |
| 20260901022156 | 18 | 168 | 9.7 | 17.7 | 0.08 | 0.10 | 0.10 | 71 | 1024.8 |
| 20260901022132 | 18 | 178 | 9.7 | 17.7 | 0.08 | 0.10 | 0.10 | 71 | 1024.8 |
| 20260901022055 | 18 | 174 | 9.7 | 17.7 | 0.08 | 0.10 | 0.10 | 71 | 1024.8 |
| 20260901021956 | 19 | 206 | 9.7 | 19.3 | 0.08 | 0.10 | 0.10 | 71 | 1024.7 |
| 20260901021754 | 19 | 191 | 11.3 | 29.0 | 0.05 | 0.08 | 0.10 | 70 | 1024.5 |
| 20260901021626 | 19 | 188 | 12.9 | 29.0 | 0.05 | 0.08 | 0.08 | 69 | 1024.3 |
| 20260901021547 | 19 | 195 | 12.9 | 29.0 | 0.05 | 0.08 | 0.08 | 69 | 1024.3 |
| 20260901021446 | 19 | 210 | 14.5 | 29.0 | 0.05 | 0.08 | 0.08 | 68 | 1024.3 |
| 20260901021342 | 20 | 200 | 14.5 | 45.1 | 0.05 | 0.08 | 0.08 | 67 | 1024.2 |
| 20260901021249 | 20 | 223 | 14.5 | 45.1 | 0.05 | 0.08 | 0.08 | 67 | 1024.1 |
| 20260901021120 | 20 | 219 | 14.5 | 45.1 | 0.05 | 0.08 | 0.08 | 66 | 1023.9 |
| 20260901021042 | 20 | 189 | 14.5 | 45.1 | 0.03 | 0.05 | 0.08 | 65 | 1023.9 |
| 20260901020941 | 20 | 200 | 14.5 | 45.1 | 0.03 | 0.05 | 0.05 | 65 | 1023.8 |
| 20260901020906 | 20 | 198 | 14.5 | 45.1 | 0.03 | 0.05 | 0.05 | 64 | 1023.8 |
| 20260901020859 | 21 | 173 | 12.9 | 45.1 | 0.03 | 0.05 | 0.05 | 62 | 1023.7 |
| 20260901020329 | 21 | 194 | 9.7 | 29.0 | 0.00 | 0.03 | 0.03 | 56 | 1023.4 |
| 20260901020229 | 21 | 200 | 8.0 | 29.0 | 0.00 | 0.03 | 0.03 | 56 | 1023.2 |
| 20260901020215 | 21 | 176 | 8.0 | 20.9 | 0.00 | 0.03 | 0.03 | 55 | 1023.2 |
| 20260901020029 | 21 | 213 | 8.0 | 20.9 | 0.00 | 0.03 | 0.03 | 55 | 1023.2 |
| 20260901015929 | 21 | 202 | 8.0 | 16.1 | 0.00 | 0.03 | 0.03 | 54 | 1023.1 |
| 20260901015824 | 21 | 217 | 8.0 | 17.7 | 0.00 | 0.03 | 0.03 | 55 | 1023.1 |
| 20260901015723 | 21 | 200 | 8.0 | 17.7 | 0.00 | 0.03 | 0.03 | 54 | 1023.0 |
| 20260901015623 | 21 | 217 | 9.7 | 17.7 | 0.00 | 0.03 | 0.03 | 54 | 1023.0 |
| 20260901015603 | 21 | 234 | 9.7 | 17.7 | 0.00 | 0.03 | 0.03 | 54 | 1023.0 |
| 20260901015524 | 21 | 226 | 9.7 | 17.7 | 0.00 | 0.03 | 0.03 | 55 | 1022.9 |
| 20260901015431 | 21 | 209 | 9.7 | 17.7 | 0.00 | 0.03 | 0.03 | 54 | 1022.9 |
| 20260901015118 | 21 | 271 | 9.7 | 17.7 | 0.00 | 0.03 | 0.03 | 53 | 1022.8 |
| 20260901015056 | 21 | 256 | 9.7 | 17.7 | 0.00 | 0.03 | 0.03 | 53 | 1022.8 |
| 20260901015017 | 21 | 249 | 9.7 | 17.7 | 0.00 | 0.03 | 0.03 | 54 | 1022.8 |
| 20260901014917 | 21 | 304 | 9.7 | 17.7 | 0.00 | 0.03 | 0.03 | 54 | 1022.6 |
| 20260901014821 | 21 | 209 | 9.7 | 17.7 | 0.00 | 0.03 | 0.03 | 55 | 1022.6 |
| 20260901014613 | 21 | 292 | 9.7 | 17.7 | 0.03 | 0.03 | 0.03 | 55 | 1022.5 |
| 20260901014550 | 21 | 262 | 9.7 | 17.7 | 0.03 | 0.03 | 0.03 | 55 | 1022.5 |
| 20260901014513 | 21 | 252 | 9.7 | 17.7 | 0.03 | 0.03 | 0.03 | 55 | 1022.5 |
| 20260901014418 | 21 | 300 | 9.7 | 17.7 | 0.03 | 0.03 | 0.03 | 55 | 1022.5 |
| 20260901014105 | 21 | 317 | 9.7 | 17.7 | 0.03 | 0.03 | 0.03 | 55 | 1022.6 |
| 20260901014045 | 21 | 285 | 9.7 | 17.7 | 0.03 | 0.03 | 0.03 | 55 | 1022.6 |
| 20260901014005 | 21 | 322 | 9.7 | 17.7 | 0.03 | 0.03 | 0.03 | 55 | 1022.6 |
| 20260901013906 | 21 | 288 | 9.7 | 17.7 | 0.03 | 0.03 | 0.03 | 55 | 1022.6 |
| 20260901013804 | 20 | 280 | 9.7 | 19.3 | 0.03 | 0.03 | 0.03 | 56 | 1022.5 |
| 20260901013703 | 21 | 288 | 11.3 | 19.3 | 0.03 | 0.03 | 0.03 | 56 | 1022.5 |
| 20260901013603 | 21 | 286 | 11.3 | 19.3 | 0.03 | 0.03 | 0.03 | 56 | 1022.5 |
| 20260901013539 | 21 | 305 | 11.3 | 19.3 | 0.03 | 0.03 | 0.03 | 56 | 1022.5 |
| 20260901013502 | 21 | 300 | 12.9 | 19.3 | 0.03 | 0.03 | 0.03 | 57 | 1022.5 |
| 20260901013359 | 21 | 296 | 11.3 | 20.9 | 0.03 | 0.03 | 0.03 | 57 | 1022.5 |
| 20260901013256 | 21 | 306 | 11.3 | 20.9 | 0.03 | 0.03 | 0.03 | 57 | 1022.5 |
| 20260901013153 | 21 | 289 | 11.3 | 20.9 | 0.03 | 0.03 | 0.03 | 56 | 1022.5 |
| 20260901013104 | 21 | 325 | 12.9 | 20.9 | 0.03 | 0.03 | 0.03 | 56 | 1022.4 |
| 20260901013058 | 21 | 340 | 12.9 | 20.9 | 0.03 | 0.03 | 0.03 | 56 | 1022.4 |
| 20260901012853 | 21 | 292 | 12.9 | 20.9 | 0.03 | 0.03 | 0.03 | 56 | 1022.4 |
| 20260901012749 | 21 | 329 | 12.9 | 20.9 | 0.03 | 0.03 | 0.03 | 56 | 1022.4 |
| 20260901012743 | 21 | 309 | 12.9 | 20.9 | 0.03 | 0.03 | 0.03 | 56 | 1022.3 |
| 20260901012448 | 21 | 313 | 11.3 | 20.9 | 0.03 | 0.03 | 0.03 | 56 | 1022.3 |
| 20260901012348 | 21 | 316 | 11.3 | 20.9 | 0.03 | 0.03 | 0.03 | 56 | 1022.3 |
| 20260901012142 | 21 | 315 | 11.3 | 20.9 | 0.03 | 0.03 | 0.03 | 56 | 1022.3 |
| 20260901012042 | 21 | 307 | 9.7 | 20.9 | 0.03 | 0.03 | 0.03 | 55 | 1022.3 |
| 20260901012029 | 21 | 316 | 9.7 | 20.9 | 0.03 | 0.03 | 0.03 | 55 | 1022.3 |
| 20260901011942 | 21 | 310 | 9.7 | 20.9 | 0.03 | 0.03 | 0.03 | 55 | 1022.3 |
| 20260901011841 | 21 | 321 | 9.7 | 16.1 | 0.03 | 0.03 | 0.03 | 55 | 1022.3 |
| 20260901011735 | 21 | 298 | 9.7 | 16.1 | 0.03 | 0.03 | 0.03 | 55 | 1022.3 |
| 20260901011642 | 21 | 14 | 9.7 | 16.1 | 0.03 | 0.03 | 0.03 | 56 | 1022.3 |
| 20260901011636 | 21 | 343 | 9.7 | 16.1 | 0.03 | 0.03 | 0.03 | 56 | 1022.4 |
| 20260901011435 | 21 | 344 | 9.7 | 16.1 | 0.03 | 0.03 | 0.03 | 58 | 1022.4 |
| 20260901011335 | 21 | 338 | 9.7 | 16.1 | 0.03 | 0.03 | 0.03 | 57 | 1022.5 |
| 20260901011232 | 21 | 315 | 9.7 | 16.1 | 0.03 | 0.03 | 0.03 | 58 | 1022.5 |
| 20260901011143 | 21 | 351 | 9.7 | 16.1 | 0.03 | 0.03 | 0.03 | 58 | 1022.5 |
| 20260901011136 | 21 | 336 | 11.3 | 19.3 | 0.03 | 0.03 | 0.03 | 58 | 1022.6 |
| 20260901010931 | 20 | 333 | 11.3 | 22.5 | 0.03 | 0.03 | 0.03 | 56 | 1022.6 |
| 20260901010829 | 20 | 308 | 11.3 | 22.5 | 0.03 | 0.03 | 0.03 | 57 | 1022.6 |
| 20260901010730 | 20 | 333 | 11.3 | 22.5 | 0.03 | 0.03 | 0.03 | 61 | 1022.8 |
| 20260901010529 | 20 | 291 | 12.9 | 24.1 | 0.03 | 0.03 | 0.03 | 60 | 1022.8 |
| 20260901010523 | 20 | 294 | 12.9 | 24.1 | 0.03 | 0.03 | 0.03 | 60 | 1022.8 |
| 20260901010423 | 20 | 342 | 12.9 | 24.1 | 0.03 | 0.03 | 0.03 | 59 | 1022.9 |
| 20260901010324 | 20 | 344 | 12.9 | 24.1 | 0.03 | 0.03 | 0.03 | 59 | 1022.9 |
| 20260901010223 | 20 | 302 | 14.5 | 25.7 | 0.03 | 0.03 | 0.03 | 58 | 1023.0 |
| 20260901010122 | 20 | 313 | 14.5 | 30.6 | 0.03 | 0.03 | 0.03 | 58 | 1023.0 |
| 20260901010029 | 20 | 303 | 14.5 | 30.6 | 0.03 | 0.03 | 0.03 | 59 | 1023.0 |
| 20260901010022 | 20 | 311 | 14.5 | 30.6 | 0.03 | 0.03 | 0.03 | 59 | 1023.0 |
| 20260901005921 | 20 | 306 | 14.5 | 37.0 | 0.03 | 0.03 | 0.03 | 60 | 1023.0 |
| 20260901005821 | 20 | 308 | 14.5 | 37.0 | 0.03 | 0.03 | 0.03 | 61 | 1023.0 |
| 20260901005722 | 20 | 333 | 16.1 | 37.0 | 0.03 | 0.03 | 0.03 | 61 | 1023.0 |
| 20260901005619 | 21 | 288 | 16.1 | 37.0 | 0.03 | 0.03 | 0.03 | 61 | 1022.9 |
| 20260901005528 | 21 | 261 | 16.1 | 37.0 | 0.03 | 0.03 | 0.03 | 61 | 1022.9 |
| 20260901005520 | 21 | 295 | 16.1 | 37.0 | 0.03 | 0.03 | 0.03 | 61 | 1022.9 |
| 20260901005427 | 21 | 312 | 16.1 | 37.0 | 0.03 | 0.03 | 0.03 | 60 | 1022.9 |
| 20260901005219 | 21 | 304 | 16.1 | 37.0 | 0.03 | 0.03 | 0.03 | 58 | 1022.9 |
| 20260901005129 | 22 | 308 | 16.1 | 37.0 | 0.03 | 0.03 | 0.03 | 57 | 1022.9 |
| 20260901005122 | 22 | 297 | 16.1 | 37.0 | 0.03 | 0.03 | 0.03 | 59 | 1023.0 |
| 20260901004917 | 22 | 290 | 17.7 | 37.0 | 0.03 | 0.03 | 0.03 | 58 | 1022.9 |
| 20260901004823 | 22 | 261 | 17.7 | 37.0 | 0.03 | 0.03 | 0.03 | 56 | 1022.9 |
| 20260901004615 | 23 | 286 | 19.3 | 37.0 | 0.00 | 0.00 | 0.00 | 54 | 1022.9 |
| 20260901004524 | 23 | 285 | 19.3 | 38.6 | 0.00 | 0.00 | 0.00 | 52 | 1022.8 |
| 20260901004515 | 23 | 290 | 19.3 | 38.6 | 0.00 | 0.00 | 0.00 | 52 | 1022.8 |
| 20260901004422 | 23 | 294 | 20.9 | 38.6 | 0.00 | 0.00 | 0.00 | 49 | 1022.8 |
| 20260901004222 | 23 | 288 | 22.5 | 38.6 | 0.00 | 0.00 | 0.00 | 45 | 1022.6 |
| 20260901004024 | 24 | 293 | 22.5 | 38.6 | 0.00 | 0.00 | 0.00 | 43 | 1022.5 |
| 20260901004011 | 24 | 322 | 22.5 | 38.6 | 0.00 | 0.00 | 0.00 | 43 | 1022.5 |
| 20260901003912 | 24 | 318 | 22.5 | 38.6 | 0.00 | 0.00 | 0.00 | 42 | 1022.4 |
| 20260901003812 | 24 | 308 | 22.5 | 38.6 | 0.00 | 0.00 | 0.00 | 42 | 1022.4 |
| 20260901003711 | 25 | 291 | 20.9 | 38.6 | 0.00 | 0.00 | 0.00 | 41 | 1022.3 |
| 20260901003608 | 25 | 302 | 19.3 | 38.6 | 0.00 | 0.00 | 0.00 | 41 | 1022.3 |
| 20260901003526 | 25 | 318 | 17.7 | 38.6 | 0.00 | 0.00 | 0.00 | 41 | 1022.3 |
| 20260901003510 | 25 | 311 | 17.7 | 38.6 | 0.00 | 0.00 | 0.00 | 40 | 1022.3 |
| 20260901003303 | 25 | 311 | 12.9 | 37.0 | 0.00 | 0.00 | 0.00 | 38 | 1022.2 |
| 20260901003203 | 25 | 284 | 11.3 | 35.4 | 0.00 | 0.00 | 0.00 | 37 | 1022.0 |
| 20260901003103 | 25 | 311 | 11.3 | 35.4 | 0.00 | 0.00 | 0.00 | 35 | 1021.9 |
| 20260901003025 | 25 | 322 | 8.0 | 35.4 | 0.00 | 0.00 | 0.00 | 35 | 1022.0 |
| 20260901003006 | 25 | 326 | 8.0 | 35.4 | 0.00 | 0.00 | 0.00 | 35 | 1022.0 |
| 20260901002759 | 26 | 26 | 4.8 | 12.9 | 0.00 | 0.00 | 0.00 | 35 | 1022.0 |
| 20260901002700 | 26 | 339 | 4.8 | 9.7 | 0.00 | 0.00 | 0.00 | 35 | 1021.9 |
| 20260901002557 | 26 | 5 | 3.2 | 9.7 | 0.00 | 0.00 | 0.00 | 35 | 1022.0 |
| 20260901002524 | 26 | 355 | 3.2 | 8.0 | 0.00 | 0.00 | 0.00 | 35 | 1021.9 |
| 20260901002455 | 26 | 355 | 3.2 | 8.0 | 0.00 | 0.00 | 0.00 | 34 | 1021.9 |
| 20260901002356 | 26 | 0 | 3.2 | 8.0 | 0.00 | 0.00 | 0.00 | 35 | 1022.0 |
| 20260901002255 | 26 | 0 | 3.2 | 8.0 | 0.00 | 0.00 | 0.00 | 35 | 1021.9 |
| 20260901002153 | 26 | 355 | 1.6 | 8.0 | 0.00 | 0.00 | 0.00 | 34 | 1022.0 |
| 20260901002132 | 26 | 340 | 1.6 | 4.8 | 0.00 | 0.00 | 0.00 | 34 | 1022.0 |
| 20260901002001 | 26 | 339 | 1.6 | 4.8 | 0.00 | 0.00 | 0.00 | 34 | 1022.0 |
| 20260901001658 | 26 | 61 | 1.6 | 3.2 | 0.00 | 0.00 | 0.00 | 34 | 1021.9 |
| 20260901001651 | 26 | 61 | 1.6 | 4.8 | 0.00 | 0.00 | 0.00 | 33 | 1021.9 |
| 20260901001337 | 26 | 61 | 3.2 | 8.0 | 0.00 | 0.00 | 0.00 | 33 | 1021.9 |
| 20260901001235 | 26 | 61 | 3.2 | 8.0 | 0.00 | 0.00 | 0.00 | 34 | 1021.9 |
| 20260901001135 | 26 | 61 | 3.2 | 8.0 | 0.00 | 0.00 | 0.00 | 33 | 1021.9 |
| 20260901001025 | 26 | 61 | 3.2 | 8.0 | 0.00 | 0.00 | 0.00 | 33 | 1021.9 |
| 20260901000932 | 26 | 61 | 3.2 | 8.0 | 0.00 | 0.00 | 0.00 | 32 | 1021.8 |
| 20260901000829 | 26 | 61 | 4.8 | 8.0 | 0.00 | 0.00 | 0.00 | 33 | 1021.8 |
| 20260901000729 | 26 | 61 | 4.8 | 8.0 | 0.00 | 0.00 | 0.00 | 33 | 1021.8 |
| 20260901000629 | 26 | 57 | 4.8 | 8.0 | 0.00 | 0.00 | 0.00 | 33 | 1021.8 |
| 20260901000530 | 26 | 64 | 4.8 | 8.0 | 0.00 | 0.00 | 0.00 | 33 | 1021.8 |
| 20260901000321 | 26 | 78 | 4.8 | 9.7 | 0.00 | 0.00 | 0.00 | 33 | 1021.7 |
| 20260901000221 | 26 | 97 | 4.8 | 9.7 | 0.00 | 0.00 | 0.00 | 32 | 1021.7 |
| 20260901000121 | 26 | 59 | 4.8 | 9.7 | 0.00 | 0.00 | 0.00 | 33 | 1021.8 |
| 20260901000021 | 26 | 109 | 4.8 | 14.5 | 0.00 | 0.00 | 0.00 | 33 | 1021.8 |
| 20260831235917 | 27 | 61 | 4.8 | 14.5 | 0.00 | 0.00 | 0.00 | 33 | 1021.8 |
| 20260831235817 | 27 | 120 | 6.4 | 14.5 | 0.00 | 0.00 | 0.00 | 33 | 1021.8 |
| 20260831235722 | 27 | 120 | 6.4 | 14.5 | 0.00 | 0.00 | 0.00 | 33 | 1021.8 |
| 20260831235524 | 27 | 108 | 6.4 | 16.1 | 0.00 | 0.00 | 0.00 | 33 | 1021.8 |
| 20260831235513 | 27 | 108 | 6.4 | 16.1 | 0.00 | 0.00 | 0.00 | 32 | 1021.8 |
| 20260831235414 | 27 | 105 | 8.0 | 16.1 | 0.00 | 0.00 | 0.00 | 32 | 1021.8 |
| 20260831235311 | 27 | 106 | 6.4 | 16.1 | 0.00 | 0.00 | 0.00 | 32 | 1021.8 |
| 20260831235211 | 27 | 128 | 8.0 | 16.1 | 0.00 | 0.00 | 0.00 | 32 | 1021.8 |
| 20260831235112 | 27 | 115 | 6.4 | 16.1 | 0.00 | 0.00 | 0.00 | 32 | 1021.8 |
| 20260831235029 | 27 | 106 | 6.4 | 16.1 | 0.00 | 0.00 | 0.00 | 32 | 1021.7 |
| 20260831235025 | 27 | 132 | 6.4 | 16.1 | 0.00 | 0.00 | 0.00 | 32 | 1021.7 |
| 20260831234716 | 27 | 71 | 4.8 | 16.1 | 0.00 | 0.00 | 0.00 | 31 | 1021.7 |
| 20260831234522 | 27 | 114 | 4.8 | 12.9 | 0.00 | 0.00 | 0.00 | 31 | 1021.8 |
| 20260831234509 | 27 | 59 | 4.8 | 12.9 | 0.00 | 0.00 | 0.00 | 31 | 1021.8 |
| 20260831234409 | 27 | 84 | 3.2 | 12.9 | 0.00 | 0.00 | 0.00 | 31 | 1021.8 |
| 20260831234316 | 27 | 67 | 3.2 | 8.0 | 0.00 | 0.00 | 0.00 | 31 | 1021.8 |
| 20260831234118 | 27 | 78 | 3.2 | 6.4 | 0.00 | 0.00 | 0.00 | 32 | 1021.8 |
| 20260831234112 | 27 | 69 | 3.2 | 6.4 | 0.00 | 0.00 | 0.00 | 31 | 1021.8 |
| 20260831233905 | 27 | 69 | 4.8 | 11.3 | 0.00 | 0.00 | 0.00 | 32 | 1021.8 |
| 20260831233803 | 27 | 69 | 4.8 | 11.3 | 0.00 | 0.00 | 0.00 | 32 | 1021.8 |
| 20260831233703 | 27 | 69 | 4.8 | 11.3 | 0.00 | 0.00 | 0.00 | 31 | 1021.8 |
| 20260831233604 | 27 | 69 | 4.8 | 11.3 | 0.00 | 0.00 | 0.00 | 31 | 1021.8 |
| 20260831233503 | 27 | 69 | 4.8 | 11.3 | 0.00 | 0.00 | 0.00 | 31 | 1021.8 |
| 20260831233403 | 27 | 29 | 6.4 | 11.3 | 0.00 | 0.00 | 0.00 | 30 | 1021.8 |
| 20260831233303 | 27 | 29 | 6.4 | 11.3 | 0.00 | 0.00 | 0.00 | 31 | 1021.8 |
| 20260831233213 | 27 | 67 | 6.4 | 11.3 | 0.00 | 0.00 | 0.00 | 32 | 1021.8 |
| 20260831233206 | 27 | 69 | 6.4 | 11.3 | 0.00 | 0.00 | 0.00 | 31 | 1021.8 |
| 20260831232855 | 27 | 81 | 4.8 | 11.3 | 0.00 | 0.00 | 0.00 | 31 | 1021.8 |
| 20260831232755 | 27 | 15 | 4.8 | 11.3 | 0.00 | 0.00 | 0.00 | 31 | 1021.8 |
| 20260831232649 | 27 | 98 | 4.8 | 11.3 | 0.00 | 0.00 | 0.00 | 30 | 1021.8 |
| 20260831232549 | 27 | 103 | 6.4 | 11.3 | 0.00 | 0.00 | 0.00 | 30 | 1021.8 |
| 20260831232520 | 27 | 81 | 6.4 | 12.9 | 0.00 | 0.00 | 0.00 | 30 | 1021.8 |
| 20260831232449 | 27 | 92 | 6.4 | 12.9 | 0.00 | 0.00 | 0.00 | 30 | 1021.8 |
| 20260831232349 | 27 | 49 | 6.4 | 12.9 | 0.00 | 0.00 | 0.00 | 30 | 1021.8 |
| 20260831232247 | 27 | 79 | 6.4 | 12.9 | 0.00 | 0.00 | 0.00 | 31 | 1021.8 |
| 20260831232141 | 27 | 88 | 8.0 | 12.9 | 0.00 | 0.00 | 0.00 | 30 | 1021.8 |
| 20260831232128 | 27 | 26 | 8.0 | 14.5 | 0.00 | 0.00 | 0.00 | 30 | 1021.8 |
| 20260831231941 | 27 | 46 | 8.0 | 16.1 | 0.00 | 0.00 | 0.00 | 31 | 1021.8 |
| 20260831231842 | 27 | 65 | 8.0 | 16.1 | 0.00 | 0.00 | 0.00 | 30 | 1021.8 |
| 20260831231741 | 27 | 92 | 8.0 | 16.1 | 0.00 | 0.00 | 0.00 | 30 | 1021.8 |
| 20260831231646 | 27 | 63 | 8.0 | 16.1 | 0.00 | 0.00 | 0.00 | 31 | 1021.8 |
| 20260831231521 | 27 | 30 | 6.4 | 16.1 | 0.00 | 0.00 | 0.00 | 30 | 1021.8 |
| 20260831231440 | 27 | 67 | 6.4 | 16.1 | 0.00 | 0.00 | 0.00 | 29 | 1021.8 |
| 20260831231348 | 28 | 107 | 6.4 | 16.1 | 0.00 | 0.00 | 0.00 | 30 | 1021.8 |
| 20260831231127 | 28 | 72 | 4.8 | 16.1 | 0.00 | 0.00 | 0.00 | 30 | 1021.8 |
| 20260831230930 | 28 | 74 | 4.8 | 12.9 | 0.00 | 0.00 | 0.00 | 31 | 1021.8 |
| 20260831230827 | 28 | 91 | 4.8 | 12.9 | 0.00 | 0.00 | 0.00 | 30 | 1021.8 |
| 20260831230727 | 28 | 104 | 4.8 | 11.3 | 0.00 | 0.00 | 0.00 | 30 | 1021.8 |
| 20260831230632 | 28 | 104 | 4.8 | 11.3 | 0.00 | 0.00 | 0.00 | 32 | 1021.8 |
| 20260831230626 | 28 | 104 | 4.8 | 11.3 | 0.00 | 0.00 | 0.00 | 30 | 1021.8 |
| 20260831230419 | 28 | 105 | 4.8 | 11.3 | 0.00 | 0.00 | 0.00 | 30 | 1021.8 |
| 20260831230319 | 28 | 94 | 4.8 | 11.3 | 0.00 | 0.00 | 0.00 | 30 | 1021.8 |
| 20260831230219 | 28 | 82 | 6.4 | 11.3 | 0.00 | 0.00 | 0.00 | 30 | 1021.8 |
| 20260831230115 | 28 | 79 | 4.8 | 11.3 | 0.00 | 0.00 | 0.00 | 31 | 1021.8 |
| 20260831230020 | 28 | 91 | 4.8 | 11.3 | 0.00 | 0.00 | 0.00 | 30 | 1021.9 |
| 20260831230015 | 28 | 98 | 4.8 | 9.7 | 0.00 | 0.00 | 0.00 | 30 | 1021.9 |
| 20260831225915 | 28 | 109 | 4.8 | 9.7 | 0.00 | 0.00 | 0.00 | 31 | 1021.8 |
| 20260831225815 | 28 | 85 | 4.8 | 9.7 | 0.00 | 0.00 | 0.00 | 30 | 1021.9 |
| 20260831225713 | 28 | 107 | 4.8 | 9.7 | 0.00 | 0.00 | 0.00 | 33 | 1021.9 |
| 20260831225607 | 28 | 86 | 4.8 | 14.5 | 0.00 | 0.00 | 0.00 | 31 | 1021.9 |
| 20260831225521 | 28 | 51 | 6.4 | 14.5 | 0.00 | 0.00 | 0.00 | 31 | 1021.9 |
| 20260831225507 | 28 | 48 | 6.4 | 14.5 | 0.00 | 0.00 | 0.00 | 31 | 1021.9 |
| 20260831225412 | 28 | 46 | 6.4 | 14.5 | 0.00 | 0.00 | 0.00 | 32 | 1022.0 |
| 20260831225204 | 28 | 40 | 6.4 | 14.5 | 0.00 | 0.00 | 0.00 | 34 | 1022.0 |
| 20260831225101 | 27 | 101 | 6.4 | 14.5 | 0.00 | 0.00 | 0.00 | 31 | 1021.9 |
| 20260831225018 | 27 | 78 | 6.4 | 14.5 | 0.00 | 0.00 | 0.00 | 31 | 1022.0 |
| 20260831225001 | 27 | 86 | 6.4 | 14.5 | 0.00 | 0.00 | 0.00 | 33 | 1022.0 |
| 20260831224901 | 27 | 317 | 8.0 | 14.5 | 0.00 | 0.00 | 0.00 | 32 | 1022.0 |
| 20260831224759 | 27 | 41 | 8.0 | 14.5 | 0.00 | 0.00 | 0.00 | 32 | 1022.0 |
| 20260831224657 | 27 | 49 | 8.0 | 14.5 | 0.00 | 0.00 | 0.00 | 31 | 1022.2 |
| 20260831224553 | 27 | 54 | 8.0 | 14.5 | 0.00 | 0.00 | 0.00 | 31 | 1022.0 |
| 20260831224514 | 27 | 10 | 6.4 | 14.5 | 0.00 | 0.00 | 0.00 | 31 | 1022.2 |
| 20260831224451 | 27 | 46 | 6.4 | 14.5 | 0.00 | 0.00 | 0.00 | 31 | 1022.2 |
| 20260831224349 | 28 | 17 | 6.4 | 14.5 | 0.00 | 0.00 | 0.00 | 31 | 1022.2 |
| 20260831224250 | 28 | 53 | 6.4 | 14.5 | 0.00 | 0.00 | 0.00 | 30 | 1022.2 |
| 20260831224149 | 28 | 59 | 8.0 | 14.5 | 0.00 | 0.00 | 0.00 | 30 | 1022.2 |
| 20260831224045 | 28 | 16 | 8.0 | 14.5 | 0.00 | 0.00 | 0.00 | 31 | 1022.2 |
| 20260831224015 | 28 | 34 | 6.4 | 14.5 | 0.00 | 0.00 | 0.00 | 31 | 1022.2 |
| 20260831223946 | 28 | 25 | 6.4 | 14.5 | 0.00 | 0.00 | 0.00 | 31 | 1022.2 |
| 20260831223845 | 28 | 31 | 6.4 | 14.5 | 0.00 | 0.00 | 0.00 | 32 | 1022.3 |
| 20260831223745 | 28 | 332 | 6.4 | 14.5 | 0.00 | 0.00 | 0.00 | 32 | 1022.2 |
| 20260831223643 | 28 | 51 | 6.4 | 14.5 | 0.00 | 0.00 | 0.00 | 31 | 1022.2 |
| 20260831223539 | 28 | 64 | 6.4 | 14.5 | 0.00 | 0.00 | 0.00 | 32 | 1022.2 |
| 20260831223514 | 28 | 46 | 6.4 | 14.5 | 0.00 | 0.00 | 0.00 | 32 | 1022.2 |
| 20260831223440 | 28 | 44 | 8.0 | 14.5 | 0.00 | 0.00 | 0.00 | 33 | 1022.3 |
| 20260831223339 | 28 | 74 | 6.4 | 14.5 | 0.00 | 0.00 | 0.00 | 31 | 1022.3 |
| 20260831223239 | 28 | 42 | 6.4 | 14.5 | 0.00 | 0.00 | 0.00 | 33 | 1022.3 |
| 20260831223139 | 28 | 49 | 6.4 | 16.1 | 0.00 | 0.00 | 0.00 | 32 | 1022.3 |
| 20260831223040 | 28 | 314 | 6.4 | 16.1 | 0.00 | 0.00 | 0.00 | 33 | 1022.3 |
| 20260831223013 | 28 | 32 | 6.4 | 16.1 | 0.00 | 0.00 | 0.00 | 33 | 1022.3 |
| 20260831222940 | 28 | 19 | 6.4 | 16.1 | 0.00 | 0.00 | 0.00 | 32 | 1022.2 |
| 20260831222839 | 28 | 81 | 6.4 | 16.1 | 0.00 | 0.00 | 0.00 | 31 | 1022.3 |
| 20260831222739 | 28 | 57 | 6.4 | 16.1 | 0.00 | 0.00 | 0.00 | 31 | 1022.3 |
| 20260831222639 | 28 | 59 | 6.4 | 16.1 | 0.00 | 0.00 | 0.00 | 31 | 1022.3 |
| 20260831222539 | 28 | 67 | 4.8 | 16.1 | 0.00 | 0.00 | 0.00 | 33 | 1022.3 |
| 20260831222513 | 28 | 36 | 4.8 | 16.1 | 0.00 | 0.00 | 0.00 | 31 | 1022.3 |
| 20260831222439 | 28 | 35 | 4.8 | 16.1 | 0.00 | 0.00 | 0.00 | 31 | 1022.3 |
| 20260831222335 | 28 | 55 | 4.8 | 16.1 | 0.00 | 0.00 | 0.00 | 31 | 1022.3 |
| 20260831222241 | 28 | 79 | 4.8 | 16.1 | 0.00 | 0.00 | 0.00 | 32 | 1022.3 |
| 20260831222036 | 28 | 355 | 4.8 | 9.7 | 0.00 | 0.00 | 0.00 | 34 | 1022.3 |
| 20260831222013 | 28 | 0 | 4.8 | 9.7 | 0.00 | 0.00 | 0.00 | 34 | 1022.3 |
| 20260831221935 | 28 | 15 | 4.8 | 9.7 | 0.00 | 0.00 | 0.00 | 31 | 1022.3 |
| 20260831221835 | 27 | 81 | 4.8 | 11.3 | 0.00 | 0.00 | 0.00 | 32 | 1022.4 |
| 20260831221735 | 27 | 76 | 4.8 | 11.3 | 0.00 | 0.00 | 0.00 | 35 | 1022.4 |
| 20260831221636 | 27 | 57 | 4.8 | 11.3 | 0.00 | 0.00 | 0.00 | 32 | 1022.4 |
| 20260831221533 | 27 | 57 | 4.8 | 11.3 | 0.00 | 0.00 | 0.00 | 32 | 1022.4 |
| 20260831221513 | 27 | 57 | 4.8 | 11.3 | 0.00 | 0.00 | 0.00 | 33 | 1022.4 |
| 20260831221433 | 27 | 57 | 4.8 | 11.3 | 0.00 | 0.00 | 0.00 | 33 | 1022.4 |
| 20260831221334 | 27 | 99 | 4.8 | 11.3 | 0.00 | 0.00 | 0.00 | 32 | 1022.4 |
| 20260831221234 | 27 | 70 | 4.8 | 11.3 | 0.00 | 0.00 | 0.00 | 32 | 1022.4 |
| 20260831221127 | 27 | 104 | 4.8 | 12.9 | 0.00 | 0.00 | 0.00 | 32 | 1022.4 |
| 20260831221037 | 27 | 74 | 4.8 | 12.9 | 0.00 | 0.00 | 0.00 | 31 | 1022.5 |
| 20260831221031 | 27 | 58 | 4.8 | 12.9 | 0.00 | 0.00 | 0.00 | 31 | 1022.5 |
| 20260831220827 | 27 | 117 | 4.8 | 12.9 | 0.00 | 0.00 | 0.00 | 32 | 1022.4 |
| 20260831220733 | 27 | 119 | 4.8 | 12.9 | 0.00 | 0.00 | 0.00 | 31 | 1022.4 |
| 20260831220727 | 27 | 101 | 4.8 | 12.9 | 0.00 | 0.00 | 0.00 | 32 | 1022.4 |
| 20260831220433 | 27 | 101 | 4.8 | 12.9 | 0.00 | 0.00 | 0.00 | 34 | 1022.5 |
| 20260831220234 | 27 | 37 | 4.8 | 12.9 | 0.00 | 0.00 | 0.00 | 32 | 1022.5 |
| 20260831220027 | 27 | 72 | 4.8 | 11.3 | 0.00 | 0.00 | 0.00 | 32 | 1022.4 |
| 20260831220013 | 27 | 57 | 4.8 | 11.3 | 0.00 | 0.00 | 0.00 | 32 | 1022.4 |
| 20260831215923 | 27 | 49 | 4.8 | 12.9 | 0.00 | 0.00 | 0.00 | 31 | 1022.4 |
| 20260831215830 | 27 | 99 | 6.4 | 14.5 | 0.00 | 0.00 | 0.00 | 32 | 1022.4 |
| 20260831215623 | 27 | 160 | 6.4 | 16.1 | 0.00 | 0.00 | 0.00 | 33 | 1022.4 |
| 20260831215512 | 27 | 170 | 8.0 | 16.1 | 0.00 | 0.00 | 0.00 | 31 | 1022.4 |
| 20260831215423 | 27 | 74 | 8.0 | 16.1 | 0.00 | 0.00 | 0.00 | 32 | 1022.4 |
| 20260831215323 | 27 | 77 | 8.0 | 16.1 | 0.00 | 0.00 | 0.00 | 34 | 1022.4 |
| 20260831215223 | 27 | 59 | 8.0 | 16.1 | 0.00 | 0.00 | 0.00 | 32 | 1022.3 |
| 20260831215140 | 27 | 155 | 9.7 | 16.1 | 0.00 | 0.00 | 0.00 | 32 | 1022.4 |
| 20260831215026 | 27 | 140 | 9.7 | 16.1 | 0.00 | 0.00 | 0.00 | 31 | 1022.4 |
| 20260831214820 | 27 | 71 | 8.0 | 16.1 | 0.00 | 0.00 | 0.00 | 32 | 1022.4 |
| 20260831214717 | 27 | 57 | 8.0 | 16.1 | 0.00 | 0.00 | 0.00 | 33 | 1022.4 |
| 20260831214617 | 27 | 70 | 6.4 | 16.1 | 0.00 | 0.00 | 0.00 | 31 | 1022.3 |
| 20260831214519 | 27 | 96 | 6.4 | 16.1 | 0.00 | 0.00 | 0.00 | 33 | 1022.4 |
| 20260831214513 | 27 | 73 | 6.4 | 16.1 | 0.00 | 0.00 | 0.00 | 33 | 1022.4 |
| 20260831214417 | 27 | 17 | 8.0 | 16.1 | 0.00 | 0.00 | 0.00 | 31 | 1022.4 |
| 20260831214318 | 27 | 74 | 6.4 | 16.1 | 0.00 | 0.00 | 0.00 | 31 | 1022.5 |
| 20260831214217 | 27 | 76 | 6.4 | 16.1 | 0.00 | 0.00 | 0.00 | 31 | 1022.5 |
| 20260831214117 | 27 | 81 | 6.4 | 16.1 | 0.00 | 0.00 | 0.00 | 31 | 1022.4 |
| 20260831214019 | 27 | 116 | 4.8 | 12.9 | 0.00 | 0.00 | 0.00 | 32 | 1022.5 |
| 20260831214013 | 27 | 113 | 4.8 | 12.9 | 0.00 | 0.00 | 0.00 | 32 | 1022.5 |
| 20260831213916 | 27 | 61 | 4.8 | 12.9 | 0.00 | 0.00 | 0.00 | 30 | 1022.5 |
| 20260831213817 | 27 | 92 | 6.4 | 12.9 | 0.00 | 0.00 | 0.00 | 31 | 1022.5 |
| 20260831213715 | 28 | 94 | 4.8 | 12.9 | 0.00 | 0.00 | 0.00 | 31 | 1022.5 |
| 20260831213622 | 28 | 103 | 6.4 | 12.9 | 0.00 | 0.00 | 0.00 | 30 | 1022.5 |
| 20260831213511 | 28 | 80 | 6.4 | 14.5 | 0.00 | 0.00 | 0.00 | 31 | 1022.6 |
| 20260831213411 | 28 | 87 | 6.4 | 14.5 | 0.00 | 0.00 | 0.00 | 31 | 1022.6 |
| 20260831213311 | 28 | 88 | 6.4 | 14.5 | 0.00 | 0.00 | 0.00 | 32 | 1022.6 |
| 20260831213211 | 28 | 127 | 6.4 | 14.5 | 0.00 | 0.00 | 0.00 | 32 | 1022.6 |
| 20260831213111 | 27 | 67 | 6.4 | 14.5 | 0.00 | 0.00 | 0.00 | 31 | 1022.6 |
| 20260831213011 | 27 | 136 | 6.4 | 14.5 | 0.00 | 0.00 | 0.00 | 31 | 1022.6 |
| 20260831212911 | 27 | 136 | 6.4 | 14.5 | 0.00 | 0.00 | 0.00 | 33 | 1022.8 |
| 20260831212811 | 27 | 146 | 6.4 | 14.5 | 0.00 | 0.00 | 0.00 | 31 | 1022.8 |
| 20260831212711 | 27 | 117 | 6.4 | 14.5 | 0.00 | 0.00 | 0.00 | 30 | 1022.8 |
| 20260831212611 | 27 | 136 | 6.4 | 12.9 | 0.00 | 0.00 | 0.00 | 31 | 1022.8 |
| 20260831212515 | 27 | 117 | 6.4 | 11.3 | 0.00 | 0.00 | 0.00 | 31 | 1022.8 |
| 20260831212511 | 27 | 102 | 6.4 | 11.3 | 0.00 | 0.00 | 0.00 | 31 | 1022.8 |
| 20260831212418 | 27 | 49 | 6.4 | 11.3 | 0.00 | 0.00 | 0.00 | 31 | 1022.9 |
| 20260831212211 | 27 | 55 | 4.8 | 11.3 | 0.00 | 0.00 | 0.00 | 32 | 1022.8 |
| 20260831212111 | 27 | 86 | 4.8 | 11.3 | 0.00 | 0.00 | 0.00 | 32 | 1022.9 |
| 20260831212015 | 27 | 142 | 4.8 | 11.3 | 0.00 | 0.00 | 0.00 | 33 | 1022.9 |
| 20260831212011 | 27 | 171 | 4.8 | 11.3 | 0.00 | 0.00 | 0.00 | 33 | 1022.9 |
| 20260831211911 | 27 | 140 | 4.8 | 11.3 | 0.00 | 0.00 | 0.00 | 34 | 1022.9 |
| 20260831211811 | 27 | 162 | 3.2 | 11.3 | 0.00 | 0.00 | 0.00 | 34 | 1022.9 |
| 20260831211711 | 27 | 176 | 3.2 | 11.3 | 0.00 | 0.00 | 0.00 | 33 | 1023.0 |
| 20260831211619 | 27 | 127 | 3.2 | 11.3 | 0.00 | 0.00 | 0.00 | 33 | 1022.9 |
| 20260831211508 | 27 | 97 | 3.2 | 9.7 | 0.00 | 0.00 | 0.00 | 34 | 1023.0 |
| 20260831211414 | 27 | 67 | 3.2 | 9.7 | 0.00 | 0.00 | 0.00 | 33 | 1023.0 |
| 20260831211208 | 27 | 67 | 4.8 | 12.9 | 0.00 | 0.00 | 0.00 | 34 | 1023.0 |
| 20260831211106 | 27 | 67 | 6.4 | 12.9 | 0.00 | 0.00 | 0.00 | 31 | 1023.0 |
| 20260831211007 | 27 | 67 | 6.4 | 12.9 | 0.00 | 0.00 | 0.00 | 33 | 1023.0 |
| 20260831210914 | 27 | 67 | 6.4 | 12.9 | 0.00 | 0.00 | 0.00 | 31 | 1023.0 |
| 20260831210714 | 27 | 67 | 6.4 | 12.9 | 0.00 | 0.00 | 0.00 | 33 | 1023.0 |
| 20260831210512 | 27 | 31 | 6.4 | 12.9 | 0.00 | 0.00 | 0.00 | 34 | 1023.0 |
| 20260831210508 | 27 | 38 | 6.4 | 12.9 | 0.00 | 0.00 | 0.00 | 34 | 1023.0 |
| 20260831210407 | 27 | 65 | 6.4 | 12.9 | 0.00 | 0.00 | 0.00 | 33 | 1023.0 |
| 20260831210307 | 27 | 55 | 6.4 | 12.9 | 0.00 | 0.00 | 0.00 | 32 | 1023.0 |
| 20260831210207 | 27 | 80 | 6.4 | 12.9 | 0.00 | 0.00 | 0.00 | 33 | 1023.1 |
| 20260831210118 | 27 | 40 | 4.8 | 12.9 | 0.00 | 0.00 | 0.00 | 33 | 1023.1 |
| 20260831210111 | 27 | 75 | 4.8 | 12.9 | 0.00 | 0.00 | 0.00 | 33 | 1023.1 |
| 20260831205907 | 27 | 142 | 4.8 | 12.9 | 0.00 | 0.00 | 0.00 | 34 | 1023.1 |
| 20260831205810 | 27 | 134 | 4.8 | 12.9 | 0.00 | 0.00 | 0.00 | 33 | 1023.0 |
| 20260831205603 | 27 | 88 | 4.8 | 12.9 | 0.00 | 0.00 | 0.00 | 35 | 1023.1 |
| 20260831205508 | 27 | 118 | 4.8 | 12.9 | 0.00 | 0.00 | 0.00 | 33 | 1023.1 |
| 20260831205503 | 27 | 139 | 4.8 | 12.9 | 0.00 | 0.00 | 0.00 | 33 | 1023.1 |
| 20260831205410 | 27 | 84 | 4.8 | 12.9 | 0.00 | 0.00 | 0.00 | 34 | 1023.1 |
| 20260831205203 | 27 | 42 | 6.4 | 14.5 | 0.00 | 0.00 | 0.00 | 33 | 1023.1 |
| 20260831205103 | 27 | 42 | 6.4 | 14.5 | 0.00 | 0.00 | 0.00 | 33 | 1023.1 |
| 20260831205003 | 27 | 72 | 8.0 | 14.5 | 0.00 | 0.00 | 0.00 | 34 | 1023.1 |
| 20260831204911 | 27 | 61 | 8.0 | 14.5 | 0.00 | 0.00 | 0.00 | 33 | 1023.1 |
| 20260831204703 | 27 | 34 | 6.4 | 14.5 | 0.00 | 0.00 | 0.00 | 34 | 1023.1 |
| 20260831204614 | 27 | 28 | 8.0 | 14.5 | 0.00 | 0.00 | 0.00 | 33 | 1023.2 |
| 20260831204608 | 27 | 28 | 8.0 | 14.5 | 0.00 | 0.00 | 0.00 | 34 | 1023.2 |
| 20260831204403 | 27 | 61 | 8.0 | 14.5 | 0.00 | 0.03 | 0.00 | 33 | 1023.4 |
| 20260831204310 | 27 | 108 | 8.0 | 14.5 | 0.00 | 0.03 | 0.00 | 34 | 1023.2 |
| 20260831204114 | 27 | 119 | 6.4 | 14.5 | 0.00 | 0.03 | 0.00 | 34 | 1023.2 |
| 20260831204107 | 27 | 117 | 6.4 | 12.9 | 0.00 | 0.03 | 0.00 | 33 | 1023.4 |
| 20260831203903 | 27 | 108 | 6.4 | 12.9 | 0.00 | 0.05 | 0.00 | 33 | 1023.5 |
| 20260831203759 | 27 | 61 | 6.4 | 12.9 | 0.00 | 0.05 | 0.00 | 34 | 1023.4 |
| 20260831203659 | 27 | 91 | 6.4 | 16.1 | 0.00 | 0.05 | 0.00 | 33 | 1023.5 |
| 20260831203559 | 27 | 90 | 6.4 | 16.1 | 0.00 | 0.05 | 0.00 | 33 | 1023.5 |
| 20260831203508 | 27 | 47 | 6.4 | 16.1 | 0.00 | 0.05 | 0.00 | 32 | 1023.5 |
| 20260831203459 | 27 | 112 | 6.4 | 16.1 | 0.00 | 0.05 | 0.00 | 32 | 1023.5 |
| 20260831203359 | 27 | 93 | 6.4 | 16.1 | 0.00 | 0.05 | 0.00 | 35 | 1023.5 |
| 20260831203259 | 27 | 129 | 6.4 | 16.1 | 0.00 | 0.05 | 0.00 | 35 | 1023.5 |
| 20260831203200 | 27 | 105 | 6.4 | 16.1 | 0.00 | 0.05 | 0.00 | 33 | 1023.5 |
| 20260831203100 | 27 | 90 | 6.4 | 16.1 | 0.00 | 0.05 | 0.00 | 32 | 1023.6 |
| 20260831203009 | 27 | 83 | 6.4 | 16.1 | 0.00 | 0.05 | 0.00 | 33 | 1023.6 |
| 20260831202959 | 27 | 105 | 6.4 | 16.1 | 0.00 | 0.05 | 0.00 | 33 | 1023.6 |
| 20260831202859 | 27 | 94 | 6.4 | 16.1 | 0.00 | 0.05 | 0.00 | 33 | 1023.6 |
| 20260831202759 | 27 | 79 | 4.8 | 16.1 | 0.00 | 0.05 | 0.00 | 32 | 1023.6 |
| 20260831202659 | 27 | 103 | 4.8 | 14.5 | 0.00 | 0.05 | 0.00 | 32 | 1023.6 |
| 20260831202600 | 27 | 121 | 4.8 | 14.5 | 0.00 | 0.05 | 0.00 | 35 | 1023.7 |
| 20260831202509 | 27 | 168 | 4.8 | 14.5 | 0.00 | 0.05 | 0.00 | 35 | 1023.7 |
| 20260831202500 | 27 | 168 | 4.8 | 14.5 | 0.00 | 0.05 | 0.00 | 33 | 1023.7 |
| 20260831202413 | 27 | 82 | 4.8 | 14.5 | 0.00 | 0.05 | 0.00 | 34 | 1023.7 |
| 20260831202059 | 27 | 144 | 4.8 | 14.5 | 0.00 | 0.05 | 0.00 | 34 | 1023.7 |
| 20260831202005 | 27 | 141 | 4.8 | 14.5 | 0.00 | 0.05 | 0.00 | 35 | 1023.8 |
| 20260831202000 | 27 | 79 | 4.8 | 14.5 | 0.00 | 0.05 | 0.00 | 33 | 1023.8 |
| 20260831201856 | 27 | 92 | 4.8 | 14.5 | 0.00 | 0.05 | 0.00 | 32 | 1023.8 |
| 20260831201802 | 27 | 106 | 4.8 | 14.5 | 0.00 | 0.05 | 0.00 | 33 | 1023.8 |
| 20260831201555 | 27 | 117 | 4.8 | 11.3 | 0.00 | 0.05 | 0.00 | 33 | 1023.8 |
| 20260831201504 | 27 | 117 | 4.8 | 14.5 | 0.00 | 0.05 | 0.00 | 36 | 1023.8 |
| 20260831201455 | 27 | 117 | 4.8 | 14.5 | 0.00 | 0.05 | 0.00 | 36 | 1023.8 |
| 20260831201355 | 27 | 117 | 4.8 | 14.5 | 0.00 | 0.05 | 0.00 | 33 | 1023.8 |
| 20260831201255 | 27 | 118 | 4.8 | 14.5 | 0.00 | 0.05 | 0.00 | 33 | 1023.8 |
| 20260831201153 | 27 | 117 | 4.8 | 14.5 | 0.00 | 0.05 | 0.00 | 32 | 1023.8 |
| 20260831201053 | 27 | 127 | 4.8 | 14.5 | 0.00 | 0.05 | 0.00 | 33 | 1023.9 |
| 20260831201005 | 27 | 164 | 3.2 | 14.5 | 0.00 | 0.05 | 0.00 | 33 | 1023.9 |
| 20260831201000 | 27 | 164 | 3.2 | 14.5 | 0.00 | 0.05 | 0.00 | 33 | 1023.9 |
| 20260831200753 | 27 | 164 | 3.2 | 14.5 | 0.00 | 0.05 | 0.00 | 34 | 1023.9 |
| 20260831200654 | 27 | 148 | 3.2 | 14.5 | 0.00 | 0.05 | 0.00 | 34 | 1023.8 |
| 20260831200502 | 27 | 125 | 3.2 | 14.5 | 0.00 | 0.05 | 0.00 | 34 | 1023.8 |
| 20260831200454 | 27 | 80 | 3.2 | 14.5 | 0.00 | 0.05 | 0.00 | 34 | 1023.8 |
| 20260831200246 | 27 | 34 | 3.2 | 9.7 | 0.00 | 0.05 | 0.00 | 35 | 1023.9 |
| 20260831200141 | 27 | 10 | 3.2 | 9.7 | 0.00 | 0.05 | 0.00 | 34 | 1023.9 |
| 20260831200052 | 27 | 134 | 3.2 | 9.7 | 0.00 | 0.05 | 0.00 | 35 | 1023.9 |
| 20260831200046 | 27 | 134 | 3.2 | 9.7 | 0.00 | 0.05 | 0.00 | 34 | 1023.9 |
| 20260831195839 | 27 | 134 | 3.2 | 9.7 | 0.00 | 0.05 | 0.00 | 36 | 1023.9 |
| 20260831195739 | 27 | 134 | 3.2 | 9.7 | 0.00 | 0.05 | 0.00 | 36 | 1023.9 |
| 20260831195635 | 26 | 134 | 4.8 | 9.7 | 0.00 | 0.05 | 0.00 | 38 | 1023.9 |
| 20260831195533 | 26 | 128 | 4.8 | 9.7 | 0.00 | 0.05 | 0.00 | 35 | 1023.9 |
| 20260831195502 | 26 | 126 | 4.8 | 9.7 | 0.00 | 0.05 | 0.00 | 36 | 1023.9 |
| 20260831195433 | 26 | 85 | 4.8 | 9.7 | 0.00 | 0.05 | 0.00 | 36 | 1023.9 |
| 20260831195333 | 26 | 130 | 4.8 | 9.7 | 0.00 | 0.05 | 0.00 | 34 | 1023.9 |
| 20260831195241 | 26 | 99 | 4.8 | 9.7 | 0.00 | 0.05 | 0.00 | 34 | 1023.9 |
| 20260831194958 | 26 | 63 | 4.8 | 12.9 | 0.00 | 0.05 | 0.00 | 34 | 1023.9 |
| 20260831194925 | 26 | 63 | 4.8 | 12.9 | 0.00 | 0.05 | 0.00 | 34 | 1023.9 |
| 20260831194825 | 26 | 105 | 4.8 | 12.9 | 0.00 | 0.05 | 0.00 | 36 | 1024.1 |
| 20260831194724 | 26 | 78 | 4.8 | 12.9 | 0.00 | 0.05 | 0.00 | 34 | 1024.1 |
| 20260831194621 | 26 | 98 | 4.8 | 12.9 | 0.00 | 0.05 | 0.00 | 33 | 1023.9 |
| 20260831194530 | 26 | 65 | 4.8 | 12.9 | 0.00 | 0.05 | 0.00 | 33 | 1024.1 |
| 20260831194523 | 26 | 65 | 4.8 | 12.9 | 0.00 | 0.05 | 0.00 | 33 | 1024.1 |
| 20260831194328 | 26 | 104 | 4.8 | 12.9 | 0.00 | 0.05 | 0.00 | 35 | 1024.1 |
| 20260831194015 | 26 | 109 | 4.8 | 11.3 | 0.00 | 0.05 | 0.00 | 34 | 1024.2 |
| 20260831193958 | 26 | 123 | 4.8 | 11.3 | 0.00 | 0.05 | 0.00 | 34 | 1024.2 |
| 20260831193915 | 26 | 157 | 4.8 | 11.3 | 0.00 | 0.05 | 0.00 | 36 | 1024.1 |
| 20260831193813 | 26 | 157 | 3.2 | 11.3 | 0.00 | 0.05 | 0.00 | 37 | 1024.1 |
| 20260831193713 | 26 | 160 | 3.2 | 11.3 | 0.00 | 0.05 | 0.00 | 37 | 1024.1 |
| 20260831193613 | 26 | 109 | 3.2 | 11.3 | 0.00 | 0.05 | 0.00 | 38 | 1024.2 |
| 20260831193513 | 26 | 66 | 3.2 | 11.3 | 0.00 | 0.05 | 0.00 | 37 | 1024.2 |
| 20260831193459 | 26 | 66 | 3.2 | 11.3 | 0.00 | 0.05 | 0.00 | 37 | 1024.2 |
| 20260831193412 | 26 | 66 | 3.2 | 11.3 | 0.00 | 0.05 | 0.00 | 35 | 1024.2 |
| 20260831193313 | 26 | 66 | 3.2 | 11.3 | 0.00 | 0.05 | 0.00 | 35 | 1024.3 |
| 20260831193211 | 26 | 66 | 1.6 | 11.3 | 0.00 | 0.05 | 0.00 | 35 | 1024.2 |
| 20260831193110 | 26 | 76 | 1.6 | 11.3 | 0.00 | 0.05 | 0.00 | 33 | 1024.2 |
| 20260831193010 | 26 | 88 | 1.6 | 9.7 | 0.00 | 0.05 | 0.00 | 35 | 1024.2 |
| 20260831192956 | 26 | 94 | 1.6 | 9.7 | 0.00 | 0.05 | 0.00 | 35 | 1024.2 |
| 20260831192913 | 26 | 62 | 1.6 | 6.4 | 0.00 | 0.05 | 0.00 | 35 | 1024.2 |
| 20260831192705 | 26 | 63 | 1.6 | 6.4 | 0.00 | 0.05 | 0.00 | 38 | 1024.3 |
| 20260831192605 | 26 | 62 | 3.2 | 8.0 | 0.00 | 0.05 | 0.00 | 35 | 1024.2 |
| 20260831192456 | 26 | 62 | 3.2 | 11.3 | 0.00 | 0.05 | 0.00 | 33 | 1024.3 |
| 20260831192359 | 26 | 62 | 3.2 | 11.3 | 0.00 | 0.05 | 0.00 | 34 | 1024.3 |
| 20260831192259 | 26 | 62 | 3.2 | 11.3 | 0.00 | 0.05 | 0.00 | 36 | 1024.3 |
| 20260831192159 | 26 | 63 | 4.8 | 11.3 | 0.00 | 0.05 | 0.00 | 36 | 1024.3 |
| 20260831192059 | 26 | 63 | 4.8 | 11.3 | 0.00 | 0.05 | 0.00 | 35 | 1024.3 |
| 20260831191959 | 26 | 62 | 4.8 | 11.3 | 0.00 | 0.05 | 0.00 | 34 | 1024.3 |
| 20260831191859 | 26 | 63 | 4.8 | 11.3 | 0.00 | 0.05 | 0.00 | 33 | 1024.3 |
| 20260831191759 | 26 | 63 | 4.8 | 11.3 | 0.00 | 0.05 | 0.00 | 34 | 1024.3 |
| 20260831191700 | 26 | 63 | 4.8 | 11.3 | 0.00 | 0.05 | 0.00 | 34 | 1024.4 |
| 20260831191558 | 26 | 76 | 3.2 | 11.3 | 0.00 | 0.05 | 0.00 | 36 | 1024.4 |
| 20260831191458 | 26 | 90 | 3.2 | 9.7 | 0.00 | 0.05 | 0.00 | 37 | 1024.4 |
| 20260831191356 | 26 | 113 | 3.2 | 9.7 | 0.00 | 0.05 | 0.00 | 36 | 1024.4 |
| 20260831191300 | 26 | 113 | 3.2 | 9.7 | 0.00 | 0.05 | 0.00 | 35 | 1024.3 |
| 20260831191103 | 26 | 92 | 1.6 | 8.0 | 0.00 | 0.05 | 0.00 | 35 | 1024.4 |
| 20260831190952 | 26 | 74 | 1.6 | 8.0 | 0.00 | 0.05 | 0.00 | 35 | 1024.4 |
| 20260831190849 | 26 | 74 | 1.6 | 8.0 | 0.00 | 0.05 | 0.00 | 37 | 1024.4 |
| 20260831190747 | 26 | 151 | 3.2 | 8.0 | 0.00 | 0.05 | 0.00 | 37 | 1024.4 |
| 20260831190647 | 26 | 151 | 3.2 | 8.0 | 0.00 | 0.05 | 0.00 | 36 | 1024.4 |
| 20260831190547 | 26 | 151 | 3.2 | 8.0 | 0.00 | 0.05 | 0.00 | 36 | 1024.5 |
| 20260831190446 | 26 | 93 | 3.2 | 8.0 | 0.00 | 0.05 | 0.00 | 37 | 1024.4 |
| 20260831190348 | 26 | 93 | 3.2 | 8.0 | 0.00 | 0.05 | 0.00 | 37 | 1024.5 |
| 20260831190141 | 26 | 121 | 3.2 | 8.0 | 0.00 | 0.05 | 0.00 | 37 | 1024.5 |
| 20260831190051 | 25 | 121 | 3.2 | 8.0 | 0.00 | 0.05 | 0.00 | 37 | 1024.5 |
| 20260831185940 | 25 | 169 | 3.2 | 8.0 | 0.00 | 0.05 | 0.00 | 36 | 1024.5 |
| 20260831185837 | 25 | 188 | 3.2 | 8.0 | 0.00 | 0.05 | 0.00 | 36 | 1024.7 |
| 20260831185735 | 25 | 137 | 3.2 | 8.0 | 0.00 | 0.05 | 0.00 | 38 | 1024.5 |
| 20260831185634 | 25 | 159 | 3.2 | 8.0 | 0.00 | 0.05 | 0.00 | 37 | 1024.5 |
| 20260831185535 | 25 | 159 | 3.2 | 8.0 | 0.00 | 0.05 | 0.00 | 37 | 1024.5 |
| 20260831185434 | 25 | 159 | 3.2 | 9.7 | 0.00 | 0.05 | 0.00 | 36 | 1024.5 |
| 20260831185331 | 25 | 159 | 3.2 | 9.7 | 0.00 | 0.05 | 0.00 | 36 | 1024.5 |
| 20260831185231 | 25 | 159 | 3.2 | 9.7 | 0.00 | 0.05 | 0.00 | 37 | 1024.5 |
| 20260831185131 | 25 | 155 | 3.2 | 9.7 | 0.00 | 0.05 | 0.00 | 39 | 1024.5 |
| 20260831185031 | 25 | 119 | 3.2 | 9.7 | 0.00 | 0.05 | 0.00 | 38 | 1024.5 |
| 20260831184928 | 25 | 118 | 3.2 | 9.7 | 0.00 | 0.05 | 0.00 | 39 | 1024.5 |
| 20260831184825 | 25 | 118 | 3.2 | 9.7 | 0.00 | 0.05 | 0.00 | 37 | 1024.5 |
| 20260831184723 | 25 | 118 | 1.6 | 9.7 | 0.00 | 0.05 | 0.00 | 37 | 1024.5 |
| 20260831184622 | 25 | 144 | 1.6 | 9.7 | 0.00 | 0.05 | 0.00 | 38 | 1024.5 |
| 20260831184523 | 25 | 153 | 1.6 | 9.7 | 0.00 | 0.05 | 0.00 | 37 | 1024.5 |
| 20260831184422 | 25 | 202 | 1.6 | 8.0 | 0.00 | 0.05 | 0.00 | 37 | 1024.5 |
| 20260831184319 | 25 | 202 | 1.6 | 8.0 | 0.00 | 0.05 | 0.00 | 36 | 1024.5 |
| 20260831184224 | 25 | 202 | 1.6 | 8.0 | 0.00 | 0.05 | 0.00 | 37 | 1024.5 |
| 20260831184027 | 25 | 162 | 1.6 | 6.4 | 0.00 | 0.05 | 0.00 | 37 | 1024.5 |
| 20260831183916 | 25 | 162 | 1.6 | 6.4 | 0.00 | 0.05 | 0.00 | 38 | 1024.5 |
| 20260831183813 | 25 | 162 | 1.6 | 6.4 | 0.00 | 0.05 | 0.00 | 36 | 1024.5 |
| 20260831183711 | 25 | 162 | 1.6 | 6.4 | 0.00 | 0.05 | 0.00 | 38 | 1024.5 |
| 20260831183610 | 25 | 162 | 1.6 | 6.4 | 0.00 | 0.05 | 0.00 | 36 | 1024.5 |
| 20260831183511 | 25 | 162 | 1.6 | 6.4 | 0.00 | 0.05 | 0.00 | 37 | 1024.5 |
| 20260831183410 | 25 | 161 | 1.6 | 4.8 | 0.00 | 0.05 | 0.00 | 36 | 1024.5 |
| 20260831183307 | 25 | 150 | 1.6 | 4.8 | 0.00 | 0.05 | 0.00 | 37 | 1024.5 |
| 20260831183205 | 25 | 150 | 1.6 | 4.8 | 0.00 | 0.05 | 0.00 | 39 | 1024.5 |
| 20260831183105 | 25 | 150 | 1.6 | 4.8 | 0.00 | 0.05 | 0.00 | 37 | 1024.7 |
| 20260831183004 | 25 | 150 | 1.6 | 4.8 | 0.00 | 0.05 | 0.00 | 36 | 1024.7 |
| 20260831182905 | 25 | 106 | 1.6 | 4.8 | 0.00 | 0.05 | 0.00 | 37 | 1024.5 |
| 20260831182810 | 25 | 106 | 1.6 | 6.4 | 0.00 | 0.05 | 0.00 | 35 | 1024.7 |
| 20260831182559 | 25 | 112 | 1.6 | 6.4 | 0.00 | 0.05 | 0.00 | 35 | 1024.7 |
| 20260831182509 | 25 | 112 | 1.6 | 6.4 | 0.00 | 0.05 | 0.00 | 35 | 1024.7 |
| 20260831182502 | 25 | 112 | 1.6 | 6.4 | 0.00 | 0.05 | 0.00 | 35 | 1024.7 |
| 20260831182259 | 25 | 112 | 3.2 | 6.4 | 0.00 | 0.05 | 0.00 | 36 | 1024.5 |
| 20260831182053 | 25 | 112 | 1.6 | 6.4 | 0.00 | 0.05 | 0.00 | 36 | 1024.7 |
| 20260831182004 | 25 | 112 | 1.6 | 6.4 | 0.00 | 0.05 | 0.00 | 35 | 1024.7 |
| 20260831181852 | 25 | 106 | 1.6 | 6.4 | 0.00 | 0.05 | 0.00 | 34 | 1024.7 |
| 20260831181752 | 26 | 132 | 1.6 | 9.7 | 0.00 | 0.05 | 0.00 | 35 | 1024.7 |
| 20260831181659 | 26 | 132 | 1.6 | 9.7 | 0.00 | 0.05 | 0.00 | 38 | 1024.7 |
| 20260831181456 | 25 | 132 | 1.6 | 9.7 | 0.00 | 0.05 | 0.00 | 37 | 1024.7 |
| 20260831181345 | 25 | 132 | 1.6 | 9.7 | 0.00 | 0.05 | 0.00 | 39 | 1024.7 |
| 20260831181241 | 25 | 151 | 1.6 | 9.7 | 0.00 | 0.05 | 0.00 | 37 | 1024.5 |
| 20260831181141 | 25 | 122 | 1.6 | 9.7 | 0.00 | 0.05 | 0.00 | 37 | 1024.7 |
| 20260831181041 | 25 | 122 | 3.2 | 9.7 | 0.00 | 0.05 | 0.00 | 37 | 1024.7 |
| 20260831180951 | 25 | 122 | 3.2 | 9.7 | 0.00 | 0.05 | 0.00 | 37 | 1024.7 |
| 20260831180944 | 25 | 118 | 3.2 | 9.7 | 0.00 | 0.05 | 0.00 | 38 | 1024.7 |
| 20260831180738 | 25 | 105 | 3.2 | 9.7 | 0.00 | 0.05 | 0.00 | 41 | 1024.7 |
| 20260831180638 | 25 | 105 | 3.2 | 9.7 | 0.00 | 0.05 | 0.00 | 39 | 1024.7 |
| 20260831180544 | 25 | 125 | 3.2 | 9.7 | 0.00 | 0.05 | 0.00 | 37 | 1024.8 |
| 20260831180336 | 25 | 105 | 3.2 | 9.7 | 0.00 | 0.05 | 0.00 | 37 | 1024.8 |
| 20260831180235 | 25 | 119 | 3.2 | 9.7 | 0.00 | 0.05 | 0.00 | 39 | 1024.8 |
| 20260831180133 | 25 | 119 | 1.6 | 9.7 | 0.00 | 0.05 | 0.00 | 41 | 1024.8 |
| 20260831180032 | 25 | 111 | 1.6 | 9.7 | 0.00 | 0.05 | 0.00 | 41 | 1024.8 |
| 20260831175939 | 25 | 113 | 1.6 | 4.8 | 0.00 | 0.05 | 0.00 | 43 | 1024.8 |
| 20260831175828 | 25 | 113 | 1.6 | 4.8 | 0.00 | 0.05 | 0.00 | 39 | 1024.8 |
| 20260831175725 | 25 | 113 | 1.6 | 4.8 | 0.00 | 0.05 | 0.00 | 39 | 1024.8 |
| 20260831175630 | 25 | 87 | 1.6 | 4.8 | 0.00 | 0.05 | 0.00 | 38 | 1024.8 |
| 20260831175423 | 25 | 87 | 1.6 | 6.4 | 0.00 | 0.05 | 0.00 | 38 | 1024.8 |
| 20260831175322 | 25 | 87 | 1.6 | 6.4 | 0.00 | 0.05 | 0.00 | 37 | 1024.8 |
| 20260831175221 | 25 | 87 | 1.6 | 6.4 | 0.00 | 0.05 | 0.00 | 40 | 1024.9 |
| 20260831175121 | 24 | 87 | 1.6 | 6.4 | 0.00 | 0.05 | 0.00 | 39 | 1024.8 |
| 20260831175020 | 24 | 88 | 1.6 | 6.4 | 0.00 | 0.05 | 0.00 | 37 | 1024.8 |
| 20260831174919 | 24 | 87 | 3.2 | 6.4 | 0.00 | 0.05 | 0.00 | 38 | 1024.9 |
| 20260831174816 | 24 | 87 | 3.2 | 6.4 | 0.00 | 0.05 | 0.00 | 38 | 1024.9 |
| 20260831174710 | 24 | 87 | 3.2 | 6.4 | 0.00 | 0.05 | 0.00 | 38 | 1024.9 |
| 20260831174611 | 24 | 87 | 3.2 | 6.4 | 0.00 | 0.05 | 0.00 | 39 | 1024.9 |
| 20260831174511 | 24 | 89 | 3.2 | 6.4 | 0.00 | 0.05 | 0.00 | 39 | 1024.9 |
| 20260831174422 | 24 | 135 | 3.2 | 6.4 | 0.00 | 0.05 | 0.00 | 39 | 1024.8 |
| 20260831174415 | 24 | 135 | 3.2 | 6.4 | 0.00 | 0.05 | 0.00 | 39 | 1024.9 |
| 20260831174206 | 24 | 135 | 3.2 | 6.4 | 0.00 | 0.05 | 0.00 | 37 | 1024.9 |
| 20260831174112 | 25 | 135 | 3.2 | 6.4 | 0.00 | 0.05 | 0.00 | 38 | 1024.8 |
| 20260831173904 | 25 | 135 | 3.2 | 6.4 | 0.00 | 0.05 | 0.00 | 38 | 1024.9 |
| 20260831173804 | 25 | 135 | 3.2 | 6.4 | 0.00 | 0.05 | 0.00 | 38 | 1024.8 |
| 20260831173701 | 25 | 135 | 3.2 | 6.4 | 0.00 | 0.05 | 0.00 | 40 | 1024.9 |
| 20260831173601 | 25 | 135 | 3.2 | 6.4 | 0.00 | 0.05 | 0.00 | 40 | 1024.9 |
| 20260831173500 | 24 | 82 | 3.2 | 6.4 | 0.00 | 0.05 | 0.00 | 39 | 1024.9 |
| 20260831173410 | 24 | 146 | 3.2 | 6.4 | 0.00 | 0.05 | 0.00 | 41 | 1024.9 |
| 20260831173403 | 24 | 138 | 3.2 | 8.0 | 0.00 | 0.05 | 0.00 | 39 | 1025.0 |
| 20260831173203 | 24 | 110 | 3.2 | 8.0 | 0.00 | 0.05 | 0.00 | 38 | 1024.9 |
| 20260831172956 | 24 | 110 | 3.2 | 8.0 | 0.00 | 0.05 | 0.00 | 39 | 1024.9 |
| 20260831172904 | 24 | 110 | 3.2 | 8.0 | 0.00 | 0.05 | 0.00 | 40 | 1025.0 |
| 20260831172752 | 24 | 110 | 3.2 | 8.0 | 0.00 | 0.05 | 0.00 | 39 | 1024.9 |
| 20260831172649 | 24 | 110 | 3.2 | 8.0 | 0.00 | 0.05 | 0.00 | 38 | 1024.9 |
| 20260831172547 | 24 | 110 | 3.2 | 9.7 | 0.00 | 0.05 | 0.00 | 39 | 1025.0 |
| 20260831172446 | 24 | 109 | 4.8 | 9.7 | 0.00 | 0.05 | 0.00 | 39 | 1024.9 |
| 20260831172348 | 24 | 157 | 4.8 | 9.7 | 0.00 | 0.05 | 0.00 | 39 | 1024.9 |
| 20260831172246 | 24 | 94 | 4.8 | 9.7 | 0.00 | 0.05 | 0.00 | 40 | 1025.0 |
| 20260831172142 | 24 | 136 | 4.8 | 9.7 | 0.00 | 0.05 | 0.00 | 40 | 1024.9 |
| 20260831172043 | 24 | 124 | 4.8 | 9.7 | 0.00 | 0.05 | 0.00 | 39 | 1025.0 |
| 20260831171943 | 24 | 124 | 4.8 | 9.7 | 0.00 | 0.05 | 0.00 | 37 | 1024.9 |
| 20260831171851 | 24 | 121 | 4.8 | 9.7 | 0.00 | 0.05 | 0.00 | 37 | 1024.9 |
| 20260831171844 | 24 | 96 | 4.8 | 9.7 | 0.00 | 0.05 | 0.00 | 38 | 1025.0 |
| 20260831171639 | 24 | 97 | 4.8 | 9.7 | 0.00 | 0.05 | 0.00 | 37 | 1024.9 |
| 20260831171539 | 24 | 111 | 3.2 | 9.7 | 0.00 | 0.05 | 0.00 | 37 | 1025.0 |
| 20260831171438 | 24 | 91 | 3.2 | 8.0 | 0.00 | 0.05 | 0.00 | 39 | 1024.9 |
| 20260831171337 | 24 | 101 | 3.2 | 6.4 | 0.00 | 0.05 | 0.00 | 39 | 1025.0 |
| 20260831171236 | 24 | 103 | 3.2 | 6.4 | 0.00 | 0.05 | 0.00 | 37 | 1025.0 |
| 20260831171028 | 25 | 126 | 3.2 | 8.0 | 0.00 | 0.05 | 0.00 | 39 | 1025.0 |
| 20260831170929 | 25 | 80 | 3.2 | 8.0 | 0.00 | 0.05 | 0.00 | 37 | 1025.0 |
| 20260831170829 | 25 | 80 | 4.8 | 8.0 | 0.00 | 0.05 | 0.00 | 36 | 1025.0 |
| 20260831170728 | 25 | 65 | 4.8 | 9.7 | 0.00 | 0.05 | 0.00 | 39 | 1025.0 |
| 20260831170625 | 25 | 94 | 4.8 | 9.7 | 0.00 | 0.05 | 0.00 | 39 | 1025.0 |
| 20260831170523 | 24 | 107 | 4.8 | 9.7 | 0.00 | 0.05 | 0.00 | 38 | 1024.9 |
| 20260831170423 | 24 | 121 | 4.8 | 9.7 | 0.00 | 0.05 | 0.00 | 40 | 1025.0 |
| 20260831170323 | 24 | 153 | 4.8 | 9.7 | 0.00 | 0.05 | 0.00 | 41 | 1025.0 |
| 20260831170223 | 24 | 153 | 4.8 | 9.7 | 0.00 | 0.05 | 0.00 | 39 | 1024.9 |
| 20260831170118 | 24 | 135 | 4.8 | 9.7 | 0.00 | 0.05 | 0.00 | 40 | 1025.0 |
| 20260831170017 | 24 | 200 | 4.8 | 9.7 | 0.00 | 0.05 | 0.00 | 39 | 1025.0 |
| 20260831165923 | 24 | 140 | 4.8 | 11.3 | 0.00 | 0.05 | 0.00 | 39 | 1025.0 |
| 20260831165716 | 24 | 140 | 4.8 | 11.3 | 0.00 | 0.05 | 0.00 | 38 | 1025.0 |
| 20260831165613 | 24 | 103 | 4.8 | 11.3 | 0.00 | 0.05 | 0.00 | 40 | 1025.1 |
| 20260831165511 | 24 | 129 | 4.8 | 11.3 | 0.00 | 0.05 | 0.00 | 39 | 1025.0 |
| 20260831165429 | 24 | 123 | 4.8 | 11.3 | 0.00 | 0.05 | 0.00 | 38 | 1025.0 |
| 20260831165422 | 24 | 109 | 4.8 | 11.3 | 0.00 | 0.05 | 0.00 | 41 | 1025.0 |
| 20260831165116 | 24 | 169 | 4.8 | 11.3 | 0.00 | 0.05 | 0.00 | 38 | 1025.0 |
| 20260831164922 | 24 | 117 | 4.8 | 9.7 | 0.00 | 0.05 | 0.00 | 38 | 1025.0 |
| 20260831164916 | 24 | 119 | 3.2 | 9.7 | 0.00 | 0.05 | 0.00 | 37 | 1025.0 |
| 20260831164559 | 24 | 122 | 3.2 | 9.7 | 0.00 | 0.05 | 0.00 | 38 | 1025.0 |
| 20260831164459 | 24 | 115 | 3.2 | 9.7 | 0.00 | 0.05 | 0.00 | 41 | 1025.0 |
| 20260831164358 | 24 | 142 | 3.2 | 9.7 | 0.00 | 0.05 | 0.00 | 39 | 1025.0 |
| 20260831164309 | 24 | 140 | 3.2 | 9.7 | 0.00 | 0.05 | 0.00 | 37 | 1025.0 |
| 20260831164302 | 24 | 135 | 3.2 | 8.0 | 0.00 | 0.05 | 0.00 | 39 | 1024.9 |
| 20260831164053 | 24 | 132 | 3.2 | 8.0 | 0.00 | 0.05 | 0.00 | 41 | 1024.9 |
| 20260831163953 | 24 | 151 | 1.6 | 6.4 | 0.00 | 0.05 | 0.00 | 39 | 1024.9 |
| 20260831163852 | 24 | 113 | 1.6 | 6.4 | 0.00 | 0.05 | 0.00 | 39 | 1024.9 |
| 20260831163804 | 24 | 141 | 1.6 | 6.4 | 0.00 | 0.05 | 0.00 | 39 | 1024.9 |
| 20260831163653 | 24 | 113 | 1.6 | 6.4 | 0.00 | 0.05 | 0.00 | 39 | 1024.9 |
| 20260831163558 | 24 | 131 | 1.6 | 6.4 | 0.00 | 0.05 | 0.00 | 38 | 1024.9 |
| 20260831163350 | 24 | 90 | 1.6 | 6.4 | 0.00 | 0.05 | 0.00 | 38 | 1024.8 |
| 20260831163249 | 24 | 74 | 1.6 | 4.8 | 0.00 | 0.05 | 0.00 | 39 | 1024.9 |
| 20260831163146 | 24 | 74 | 1.6 | 4.8 | 0.00 | 0.05 | 0.00 | 42 | 1024.9 |
| 20260831163041 | 24 | 74 | 1.6 | 4.8 | 0.00 | 0.05 | 0.00 | 39 | 1024.9 |
| 20260831162941 | 24 | 74 | 1.6 | 4.8 | 0.00 | 0.05 | 0.00 | 38 | 1024.8 |
| 20260831162841 | 24 | 108 | 1.6 | 4.8 | 0.00 | 0.05 | 0.00 | 38 | 1024.8 |
| 20260831162751 | 24 | 108 | 1.6 | 4.8 | 0.00 | 0.05 | 0.00 | 38 | 1024.8 |
| 20260831162640 | 24 | 108 | 1.6 | 4.8 | 0.00 | 0.05 | 0.00 | 37 | 1024.8 |
| 20260831162534 | 24 | 108 | 1.6 | 4.8 | 0.00 | 0.05 | 0.00 | 39 | 1024.8 |
| 20260831162435 | 24 | 108 | 1.6 | 6.4 | 0.00 | 0.05 | 0.00 | 42 | 1024.8 |
| 20260831162335 | 24 | 140 | 1.6 | 6.4 | 0.00 | 0.05 | 0.00 | 40 | 1024.8 |
| 20260831162234 | 24 | 124 | 1.6 | 6.4 | 0.00 | 0.05 | 0.00 | 41 | 1024.7 |
| 20260831162134 | 24 | 132 | 1.6 | 6.4 | 0.00 | 0.05 | 0.00 | 41 | 1024.8 |
| 20260831162033 | 24 | 94 | 1.6 | 6.4 | 0.00 | 0.05 | 0.00 | 38 | 1024.7 |
| 20260831161933 | 24 | 94 | 1.6 | 6.4 | 0.00 | 0.05 | 0.00 | 40 | 1024.7 |
| 20260831161830 | 24 | 117 | 1.6 | 6.4 | 0.00 | 0.05 | 0.00 | 39 | 1024.7 |
| 20260831161731 | 24 | 117 | 1.6 | 6.4 | 0.00 | 0.05 | 0.00 | 43 | 1024.5 |
| 20260831161628 | 24 | 139 | 3.2 | 6.4 | 0.00 | 0.05 | 0.00 | 43 | 1024.7 |
| 20260831161529 | 24 | 139 | 3.2 | 6.4 | 0.00 | 0.05 | 0.00 | 43 | 1024.7 |
| 20260831161322 | 24 | 158 | 3.2 | 6.4 | 0.00 | 0.05 | 0.00 | 43 | 1024.7 |
| 20260831161233 | 24 | 158 | 3.2 | 6.4 | 0.00 | 0.05 | 0.00 | 42 | 1024.7 |
| 20260831161226 | 24 | 121 | 3.2 | 6.4 | 0.00 | 0.05 | 0.00 | 41 | 1024.7 |
| 20260831161019 | 24 | 121 | 3.2 | 6.4 | 0.00 | 0.05 | 0.00 | 42 | 1024.7 |
| 20260831160916 | 24 | 109 | 3.2 | 6.4 | 0.00 | 0.05 | 0.00 | 41 | 1024.7 |
| 20260831160817 | 24 | 109 | 3.2 | 6.4 | 0.00 | 0.05 | 0.00 | 39 | 1024.5 |
| 20260831160727 | 24 | 106 | 3.2 | 6.4 | 0.00 | 0.05 | 0.00 | 39 | 1024.7 |
| 20260831160616 | 24 | 104 | 3.2 | 6.4 | 0.00 | 0.05 | 0.00 | 42 | 1024.5 |
| 20260831160512 | 24 | 109 | 3.2 | 6.4 | 0.00 | 0.05 | 0.00 | 42 | 1024.7 |
| 20260831160411 | 24 | 109 | 3.2 | 6.4 | 0.00 | 0.05 | 0.00 | 42 | 1024.5 |
| 20260831160310 | 24 | 103 | 1.6 | 6.4 | 0.00 | 0.05 | 0.00 | 42 | 1024.7 |
| 20260831160210 | 24 | 173 | 1.6 | 6.4 | 0.00 | 0.05 | 0.00 | 44 | 1024.7 |
| 20260831160111 | 24 | 126 | 1.6 | 6.4 | 0.00 | 0.05 | 0.00 | 41 | 1024.5 |
| 20260831160007 | 24 | 126 | 1.6 | 9.7 | 0.00 | 0.05 | 0.00 | 42 | 1024.5 |
| 20260831155905 | 24 | 126 | 1.6 | 9.7 | 0.00 | 0.05 | 0.00 | 45 | 1024.5 |
| 20260831155804 | 24 | 169 | 3.2 | 9.7 | 0.00 | 0.05 | 0.00 | 43 | 1024.5 |
| 20260831155705 | 24 | 169 | 1.6 | 9.7 | 0.00 | 0.05 | 0.00 | 42 | 1024.5 |
| 20260831155605 | 23 | 181 | 1.6 | 9.7 | 0.00 | 0.05 | 0.00 | 43 | 1024.5 |
| 20260831155501 | 23 | 181 | 1.6 | 9.7 | 0.00 | 0.05 | 0.00 | 43 | 1024.5 |
| 20260831155358 | 23 | 148 | 1.6 | 9.7 | 0.00 | 0.05 | 0.00 | 45 | 1024.5 |
| 20260831155258 | 23 | 147 | 1.6 | 9.7 | 0.00 | 0.05 | 0.00 | 43 | 1024.5 |
| 20260831155210 | 23 | 148 | 1.6 | 9.7 | 0.00 | 0.05 | 0.00 | 43 | 1024.4 |
| 20260831155202 | 23 | 156 | 1.6 | 9.7 | 0.00 | 0.05 | 0.00 | 46 | 1024.5 |
| 20260831154956 | 23 | 166 | 1.6 | 8.0 | 0.00 | 0.05 | 0.00 | 43 | 1024.4 |
| 20260831154857 | 23 | 149 | 1.6 | 4.8 | 0.00 | 0.05 | 0.00 | 43 | 1024.4 |
| 20260831154756 | 23 | 136 | 1.6 | 4.8 | 0.00 | 0.05 | 0.00 | 45 | 1024.4 |
| 20260831154654 | 23 | 80 | 1.6 | 4.8 | 0.00 | 0.05 | 0.00 | 45 | 1024.4 |
| 20260831154553 | 23 | 78 | 1.6 | 4.8 | 0.00 | 0.05 | 0.00 | 44 | 1024.5 |
| 20260831154453 | 23 | 66 | 1.6 | 4.8 | 0.00 | 0.05 | 0.00 | 41 | 1024.4 |
| 20260831154350 | 23 | 67 | 1.6 | 4.8 | 0.00 | 0.05 | 0.00 | 41 | 1024.4 |
| 20260831154307 | 23 | 98 | 3.2 | 4.8 | 0.00 | 0.05 | 0.00 | 41 | 1024.4 |
| 20260831154301 | 23 | 98 | 1.6 | 4.8 | 0.00 | 0.05 | 0.00 | 41 | 1024.4 |
| 20260831153841 | 23 | 98 | 1.6 | 4.8 | 0.00 | 0.05 | 0.00 | 43 | 1024.4 |
| 20260831153741 | 23 | 98 | 1.6 | 4.8 | 0.00 | 0.05 | 0.00 | 42 | 1024.4 |
| 20260831153641 | 23 | 98 | 1.6 | 4.8 | 0.00 | 0.05 | 0.00 | 40 | 1024.4 |
| 20260831153544 | 23 | 96 | 1.6 | 4.8 | 0.00 | 0.05 | 0.00 | 42 | 1024.4 |
| 20260831153334 | 23 | 99 | 1.6 | 4.8 | 0.00 | 0.05 | 0.00 | 43 | 1024.4 |
| 20260831153252 | 23 | 99 | 1.6 | 4.8 | 0.00 | 0.05 | 0.00 | 43 | 1024.4 |
| 20260831153138 | 23 | 99 | 1.6 | 4.8 | 0.00 | 0.05 | 0.00 | 42 | 1024.4 |
| 20260831152935 | 23 | 99 | 1.6 | 4.8 | 0.00 | 0.05 | 0.00 | 44 | 1024.4 |
| 20260831152729 | 23 | 100 | 1.6 | 4.8 | 0.00 | 0.05 | 0.00 | 43 | 1024.4 |
| 20260831152629 | 23 | 100 | 1.6 | 4.8 | 0.00 | 0.05 | 0.00 | 41 | 1024.4 |
| 20260831152528 | 22 | 99 | 1.6 | 4.8 | 0.00 | 0.05 | 0.00 | 42 | 1024.4 |
| 20260831152430 | 22 | 99 | 0.0 | 4.8 | 0.00 | 0.05 | 0.00 | 40 | 1024.4 |
| 20260831152222 | 22 | 71 | 0.0 | 3.2 | 0.00 | 0.05 | 0.00 | 40 | 1024.4 |
| 20260831152122 | 22 | 71 | 1.6 | 4.8 | 0.00 | 0.05 | 0.00 | 40 | 1024.4 |
| 20260831152022 | 22 | 71 | 1.6 | 4.8 | 0.00 | 0.05 | 0.00 | 41 | 1024.4 |
| 20260831151928 | 22 | 71 | 1.6 | 4.8 | 0.00 | 0.05 | 0.00 | 43 | 1024.4 |
| 20260831151721 | 22 | 71 | 1.6 | 4.8 | 0.00 | 0.05 | 0.00 | 40 | 1024.4 |
| 20260831151618 | 22 | 71 | 1.6 | 4.8 | 0.00 | 0.05 | 0.00 | 39 | 1024.3 |
| 20260831151516 | 22 | 71 | 1.6 | 4.8 | 0.00 | 0.05 | 0.00 | 40 | 1024.4 |
| 20260831151413 | 22 | 71 | 1.6 | 4.8 | 0.00 | 0.05 | 0.00 | 39 | 1024.3 |
| 20260831151310 | 22 | 71 | 1.6 | 4.8 | 0.00 | 0.05 | 0.00 | 40 | 1024.3 |
| 20260831151210 | 22 | 71 | 1.6 | 4.8 | 0.00 | 0.05 | 0.00 | 46 | 1024.3 |
| 20260831151110 | 22 | 71 | 1.6 | 4.8 | 0.00 | 0.05 | 0.00 | 46 | 1024.3 |
| 20260831151018 | 22 | 71 | 1.6 | 4.8 | 0.00 | 0.05 | 0.00 | 44 | 1024.3 |
| 20260831150705 | 22 | 92 | 1.6 | 4.8 | 0.00 | 0.05 | 0.00 | 43 | 1024.3 |
| 20260831150605 | 22 | 67 | 0.0 | 4.8 | 0.00 | 0.05 | 0.00 | 43 | 1024.3 |
| 20260831150512 | 22 | 67 | 0.0 | 3.2 | 0.00 | 0.05 | 0.00 | 45 | 1024.4 |
| 20260831150303 | 22 | 326 | 0.0 | 3.2 | 0.00 | 0.05 | 0.00 | 42 | 1024.4 |
| 20260831150203 | 22 | 326 | 0.0 | 3.2 | 0.00 | 0.05 | 0.00 | 44 | 1024.4 |
| 20260831150109 | 22 | 326 | 0.0 | 3.2 | 0.00 | 0.05 | 0.00 | 47 | 1024.4 |
| 20260831145859 | 21 | 326 | 0.0 | 3.2 | 0.00 | 0.05 | 0.00 | 47 | 1024.4 |
| 20260831145757 | 21 | 326 | 0.0 | 3.2 | 0.00 | 0.05 | 0.00 | 43 | 1024.4 |
| 20260831145656 | 21 | 326 | 0.0 | 3.2 | 0.00 | 0.05 | 0.00 | 44 | 1024.4 |
| 20260831145603 | 21 | 326 | 0.0 | 3.2 | 0.00 | 0.05 | 0.00 | 47 | 1024.4 |
| 20260831145556 | 21 | 326 | 0.0 | 4.8 | 0.00 | 0.05 | 0.00 | 47 | 1024.4 |
| 20260831145348 | 21 | 326 | 0.0 | 4.8 | 0.00 | 0.05 | 0.00 | 48 | 1024.5 |
| 20260831145246 | 21 | 326 | 0.0 | 4.8 | 0.00 | 0.05 | 0.00 | 45 | 1024.5 |
| 20260831145147 | 21 | 326 | 0.0 | 4.8 | 0.00 | 0.05 | 0.00 | 47 | 1024.4 |
| 20260831145047 | 21 | 326 | 0.0 | 4.8 | 0.00 | 0.05 | 0.00 | 47 | 1024.5 |
| 20260831144946 | 21 | 257 | 0.0 | 4.8 | 0.00 | 0.05 | 0.00 | 49 | 1024.4 |
| 20260831144840 | 21 | 257 | 0.0 | 4.8 | 0.00 | 0.05 | 0.00 | 49 | 1024.5 |
| 20260831144740 | 21 | 257 | 0.0 | 4.8 | 0.00 | 0.05 | 0.00 | 47 | 1024.7 |
| 20260831144641 | 21 | 257 | 1.6 | 4.8 | 0.00 | 0.05 | 0.00 | 47 | 1024.5 |
| 20260831144540 | 21 | 257 | 1.6 | 4.8 | 0.00 | 0.05 | 0.00 | 45 | 1024.5 |
| 20260831144440 | 21 | 292 | 0.0 | 4.8 | 0.00 | 0.05 | 0.00 | 48 | 1024.5 |
| 20260831144336 | 21 | 292 | 1.6 | 4.8 | 0.00 | 0.05 | 0.00 | 47 | 1024.7 |
| 20260831144234 | 21 | 292 | 1.6 | 4.8 | 0.00 | 0.05 | 0.00 | 45 | 1024.5 |
| 20260831144135 | 20 | 292 | 1.6 | 4.8 | 0.00 | 0.05 | 0.00 | 47 | 1024.5 |
| 20260831144035 | 20 | 292 | 1.6 | 4.8 | 0.00 | 0.05 | 0.00 | 48 | 1024.5 |
| 20260831143934 | 20 | 292 | 1.6 | 4.8 | 0.00 | 0.05 | 0.00 | 49 | 1024.5 |
| 20260831143828 | 20 | 292 | 1.6 | 4.8 | 0.00 | 0.05 | 0.00 | 50 | 1024.5 |
| 20260831143736 | 20 | 292 | 1.6 | 4.8 | 0.00 | 0.05 | 0.00 | 50 | 1024.5 |
| 20260831143539 | 20 | 247 | 1.6 | 6.4 | 0.00 | 0.05 | 0.00 | 51 | 1024.5 |
| 20260831143428 | 20 | 247 | 1.6 | 6.4 | 0.00 | 0.05 | 0.00 | 52 | 1024.5 |
| 20260831143324 | 20 | 247 | 1.6 | 6.4 | 0.00 | 0.05 | 0.00 | 52 | 1024.5 |
| 20260831143223 | 20 | 247 | 1.6 | 6.4 | 0.00 | 0.05 | 0.00 | 52 | 1024.5 |
| 20260831143123 | 19 | 247 | 1.6 | 6.4 | 0.00 | 0.05 | 0.00 | 53 | 1024.5 |
| 20260831143022 | 19 | 247 | 1.6 | 6.4 | 0.00 | 0.05 | 0.00 | 53 | 1024.5 |
| 20260831142922 | 19 | 247 | 1.6 | 6.4 | 0.00 | 0.05 | 0.00 | 53 | 1024.4 |
| 20260831142819 | 19 | 247 | 1.6 | 6.4 | 0.00 | 0.05 | 0.00 | 54 | 1024.5 |
| 20260831142717 | 19 | 247 | 1.6 | 6.4 | 0.00 | 0.05 | 0.00 | 54 | 1024.4 |
| 20260831142616 | 19 | 260 | 1.6 | 6.4 | 0.00 | 0.05 | 0.00 | 55 | 1024.5 |
| 20260831142517 | 18 | 256 | 1.6 | 6.4 | 0.00 | 0.05 | 0.00 | 56 | 1024.5 |
| 20260831142416 | 18 | 279 | 1.6 | 4.8 | 0.00 | 0.05 | 0.00 | 57 | 1024.4 |
| 20260831142312 | 18 | 233 | 0.0 | 4.8 | 0.00 | 0.05 | 0.00 | 57 | 1024.4 |
| 20260831142211 | 18 | 233 | 0.0 | 4.8 | 0.00 | 0.05 | 0.00 | 58 | 1024.4 |
| 20260831142111 | 18 | 21 | 0.0 | 3.2 | 0.00 | 0.05 | 0.00 | 58 | 1024.4 |
| 20260831142028 | 18 | 21 | 0.0 | 3.2 | 0.00 | 0.05 | 0.00 | 58 | 1024.4 |
| 20260831141917 | 18 | 21 | 0.0 | 3.2 | 0.00 | 0.05 | 0.00 | 58 | 1024.3 |
| 20260831141713 | 18 | 21 | 0.0 | 0.0 | 0.00 | 0.05 | 0.00 | 59 | 1024.4 |
| 20260831141507 | 18 | 21 | 0.0 | 0.0 | 0.00 | 0.05 | 0.00 | 60 | 1024.3 |
| 20260831141405 | 18 | 21 | 0.0 | 0.0 | 0.00 | 0.05 | 0.00 | 60 | 1024.3 |